Wetterdaten: Freitag, 29.03.2013
Datum Zeit Temp. Aussen +5cm Feuchte Auss Luftdruck Regen Sonnenschein Regendauer UV Solar Windben
29.03.2013 00:00 0,1 C -1,0 C 82 % 1008,3 hPa 0,0 l/m 0 min 0 min 0,0 UV-I 0 W/m 0,0 km/h (0 Bft)
29.03.2013 00:02 0,1 C -1,0 C 82 % 1008,3 hPa 0,0 l/m 0 min 0 min 0,0 UV-I 0 W/m 0,0 km/h (0 Bft)
29.03.2013 00:06 0,1 C -1,0 C 83 % 1008,3 hPa 0,0 l/m 0 min 0 min 0,0 UV-I 0 W/m 7,7 km/h (2 Bft)
29.03.2013 00:08 0,1 C -1,0 C 83 % 1008,3 hPa 0,0 l/m 0 min 0 min 0,0 UV-I 0 W/m 7,7 km/h (2 Bft)
29.03.2013 00:10 0,1 C -1,0 C 83 % 1008,4 hPa 0,0 l/m 0 min 0 min 0,0 UV-I 0 W/m 7,7 km/h (2 Bft)
29.03.2013 00:12 0,1 C -1,0 C 83 % 1008,4 hPa 0,0 l/m 0 min 0 min 0,0 UV-I 0 W/m 2,6 km/h (1 Bft)
29.03.2013 00:14 0,1 C -1,0 C 83 % 1008,3 hPa 0,0 l/m 0 min 0 min 0,0 UV-I 0 W/m 2,6 km/h (1 Bft)
29.03.2013 00:16 0,0 C -1,0 C 83 % 1008,3 hPa 0,0 l/m 0 min 0 min 0,0 UV-I 0 W/m 0,0 km/h (0 Bft)
29.03.2013 00:18 0,1 C -1,0 C 84 % 1008,3 hPa 0,0 l/m 0 min 0 min 0,0 UV-I 0 W/m 0,0 km/h (0 Bft)
29.03.2013 00:20 0,0 C -1,0 C 84 % 1008,3 hPa 0,0 l/m 0 min 0 min 0,0 UV-I 0 W/m 7,7 km/h (2 Bft)
29.03.2013 00:22 0,0 C -1,0 C 84 % 1008,3 hPa 0,0 l/m 0 min 0 min 0,0 UV-I 0 W/m 5,1 km/h (1 Bft)
29.03.2013 00:24 0,0 C -1,0 C 84 % 1008,4 hPa 0,0 l/m 0 min 0 min 0,0 UV-I 0 W/m 12,9 km/h (3 Bft)
29.03.2013 00:26 0,0 C -1,0 C 85 % 1008,4 hPa 0,0 l/m 0 min 0 min 0,0 UV-I 0 W/m 7,7 km/h (2 Bft)
29.03.2013 00:28 -0,1 C -1,0 C 85 % 1008,4 hPa 0,0 l/m 0 min 0 min 0,0 UV-I 0 W/m 5,1 km/h (1 Bft)
29.03.2013 00:30 -0,1 C -1,0 C 85 % 1008,4 hPa 0,0 l/m 0 min 0 min 0,0 UV-I 0 W/m 0,0 km/h (0 Bft)
29.03.2013 00:32 -0,1 C -1,6 C 85 % 1008,4 hPa 0,0 l/m 0 min 0 min 0,0 UV-I 0 W/m 10,3 km/h (2 Bft)
29.03.2013 00:34 -0,1 C -1,0 C 85 % 1008,4 hPa 0,0 l/m 0 min 0 min 0,0 UV-I 0 W/m 7,7 km/h (2 Bft)
29.03.2013 00:36 -0,1 C -1,0 C 86 % 1008,4 hPa 0,0 l/m 0 min 0 min 0,0 UV-I 0 W/m 10,3 km/h (2 Bft)
29.03.2013 00:38 -0,1 C -1,0 C 86 % 1008,4 hPa 0,0 l/m 0 min 0 min 0,0 UV-I 0 W/m 5,1 km/h (1 Bft)
29.03.2013 00:40 -0,1 C -1,0 C 86 % 1008,4 hPa 0,0 l/m 0 min 0 min 0,0 UV-I 0 W/m 5,1 km/h (1 Bft)
29.03.2013 00:42 -0,1 C -1,0 C 86 % 1008,5 hPa 0,0 l/m 0 min 0 min 0,0 UV-I 0 W/m 10,3 km/h (2 Bft)
29.03.2013 00:44 -0,2 C -1,0 C 86 % 1008,5 hPa 0,0 l/m 0 min 0 min 0,0 UV-I 0 W/m 7,7 km/h (2 Bft)
29.03.2013 00:46 -0,2 C -1,6 C 87 % 1008,5 hPa 0,0 l/m 0 min 0 min 0,0 UV-I 0 W/m 10,3 km/h (2 Bft)
29.03.2013 00:48 -0,2 C -1,6 C 87 % 1008,5 hPa 0,0 l/m 0 min 0 min 0,0 UV-I 0 W/m 5,1 km/h (1 Bft)
29.03.2013 00:50 -0,2 C -1,6 C 87 % 1008,5 hPa 0,0 l/m 0 min 0 min 0,0 UV-I 0 W/m 2,6 km/h (1 Bft)
29.03.2013 00:52 -0,2 C -1,6 C 87 % 1008,5 hPa 0,0 l/m 0 min 0 min 0,0 UV-I 0 W/m 2,6 km/h (1 Bft)
29.03.2013 00:54 -0,2 C -1,6 C 87 % 1008,5 hPa 0,0 l/m 0 min 0 min 0,0 UV-I 0 W/m 7,7 km/h (2 Bft)
29.03.2013 00:56 -0,2 C -1,6 C 87 % 1008,5 hPa 0,0 l/m 0 min 0 min 0,0 UV-I 0 W/m 10,3 km/h (2 Bft)
29.03.2013 00:58 -0,2 C -1,6 C 88 % 1008,4 hPa 0,0 l/m 0 min 0 min 0,0 UV-I 0 W/m 7,7 km/h (2 Bft)
29.03.2013 01:00 -0,3 C -1,6 C 88 % 1008,5 hPa 0,0 l/m 0 min 0 min 0,0 UV-I 0 W/m 0,0 km/h (0 Bft)
29.03.2013 01:02 -0,3 C -1,6 C 88 % 1008,4 hPa 0,0 l/m 0 min 0 min 0,0 UV-I 0 W/m 2,6 km/h (1 Bft)
29.03.2013 01:06 -0,3 C -1,6 C 89 % 1008,4 hPa 0,0 l/m 0 min 0 min 0,0 UV-I 0 W/m 7,7 km/h (2 Bft)
29.03.2013 01:08 -0,3 C -1,6 C 89 % 1008,3 hPa 0,0 l/m 0 min 0 min 0,0 UV-I 0 W/m 2,6 km/h (1 Bft)
29.03.2013 01:10 -0,3 C -1,6 C 89 % 1008,5 hPa 0,0 l/m 0 min 0 min 0,0 UV-I 0 W/m 7,7 km/h (2 Bft)
29.03.2013 01:12 -0,3 C -1,6 C 89 % 1008,5 hPa 0,0 l/m 0 min 0 min 0,0 UV-I 0 W/m 7,7 km/h (2 Bft)
29.03.2013 01:14 -0,4 C -1,6 C 89 % 1008,4 hPa 0,0 l/m 0 min 0 min 0,0 UV-I 0 W/m 7,7 km/h (2 Bft)
29.03.2013 01:16 -0,4 C -1,6 C 89 % 1008,4 hPa 0,0 l/m 0 min 0 min 0,0 UV-I 0 W/m 7,7 km/h (2 Bft)
29.03.2013 01:18 -0,4 C -1,6 C 90 % 1008,4 hPa 0,0 l/m 0 min 0 min 0,0 UV-I 0 W/m 10,3 km/h (2 Bft)
29.03.2013 01:20 -0,4 C -1,6 C 90 % 1008,4 hPa 0,0 l/m 0 min 0 min 0,0 UV-I 0 W/m 2,6 km/h (1 Bft)
29.03.2013 01:22 -0,5 C -1,6 C 90 % 1008,3 hPa 0,0 l/m 0 min 0 min 0,0 UV-I 0 W/m 7,7 km/h (2 Bft)
29.03.2013 01:24 -0,5 C -2,1 C 90 % 1008,2 hPa 0,0 l/m 0 min 0 min 0,0 UV-I 0 W/m 5,1 km/h (1 Bft)
29.03.2013 01:26 -0,6 C -1,6 C 91 % 1008,3 hPa 0,0 l/m 0 min 0 min 0,0 UV-I 0 W/m 2,6 km/h (1 Bft)
29.03.2013 01:28 -0,6 C -2,1 C 91 % 1008,4 hPa 0,0 l/m 0 min 0 min 0,0 UV-I 0 W/m 2,6 km/h (1 Bft)
29.03.2013 01:30 -0,6 C -2,1 C 91 % 1008,4 hPa 0,0 l/m 0 min 0 min 0,0 UV-I 0 W/m 0,0 km/h (0 Bft)
29.03.2013 01:32 -0,6 C -1,6 C 91 % 1008,4 hPa 0,0 l/m 0 min 0 min 0,0 UV-I 0 W/m 0,0 km/h (0 Bft)
29.03.2013 01:34 -0,6 C -1,6 C 91 % 1008,2 hPa 0,0 l/m 0 min 0 min 0,0 UV-I 0 W/m 0,0 km/h (0 Bft)
29.03.2013 01:36 -0,6 C -2,1 C 91 % 1008,2 hPa 0,0 l/m 0 min 0 min 0,0 UV-I 0 W/m 5,1 km/h (1 Bft)
29.03.2013 01:38 -0,6 C -2,1 C 92 % 1008,2 hPa 0,0 l/m 0 min 0 min 0,0 UV-I 0 W/m 2,6 km/h (1 Bft)
29.03.2013 01:40 -0,7 C -2,1 C 92 % 1008,2 hPa 0,0 l/m 0 min 0 min 0,0 UV-I 0 W/m 5,1 km/h (1 Bft)
29.03.2013 01:42 -0,7 C -2,1 C 92 % 1008,2 hPa 0,0 l/m 0 min 0 min 0,0 UV-I 0 W/m 0,0 km/h (0 Bft)
29.03.2013 01:44 -0,7 C -2,1 C 92 % 1008,2 hPa 0,0 l/m 0 min 0 min 0,0 UV-I 0 W/m 5,1 km/h (1 Bft)
29.03.2013 01:46 -0,7 C -2,1 C 92 % 1008,4 hPa 0,0 l/m 0 min 0 min 0,0 UV-I 0 W/m 0,0 km/h (0 Bft)
29.03.2013 01:48 -0,7 C -2,1 C 92 % 1008,4 hPa 0,0 l/m 0 min 0 min 0,0 UV-I 0 W/m 2,6 km/h (1 Bft)
29.03.2013 01:50 -0,7 C -2,1 C 92 % 1008,4 hPa 0,0 l/m 0 min 0 min 0,0 UV-I 0 W/m 0,0 km/h (0 Bft)
29.03.2013 01:52 -0,7 C -2,1 C 92 % 1008,2 hPa 0,0 l/m 0 min 0 min 0,0 UV-I 0 W/m 7,7 km/h (2 Bft)
29.03.2013 01:54 -0,7 C -2,1 C 93 % 1008,2 hPa 0,0 l/m 0 min 0 min 0,0 UV-I 0 W/m 10,3 km/h (2 Bft)
29.03.2013 01:56 -0,7 C -2,1 C 93 % 1008,2 hPa 0,0 l/m 0 min 0 min 0,0 UV-I 0 W/m 0,0 km/h (0 Bft)
29.03.2013 01:58 -0,7 C -2,1 C 93 % 1008,2 hPa 0,0 l/m 0 min 0 min 0,0 UV-I 0 W/m 2,6 km/h (1 Bft)
29.03.2013 02:00 -0,8 C -2,1 C 93 % 1008,2 hPa 0,0 l/m 0 min 0 min 0,0 UV-I 0 W/m 0,0 km/h (0 Bft)
29.03.2013 02:02 -0,8 C -2,1 C 93 % 1008,3 hPa 0,0 l/m 0 min 0 min 0,0 UV-I 0 W/m 5,1 km/h (1 Bft)
29.03.2013 02:06 -0,8 C -2,1 C 93 % 1008,2 hPa 0,0 l/m 0 min 0 min 0,0 UV-I 0 W/m 7,7 km/h (2 Bft)
29.03.2013 02:08 -0,8 C -2,1 C 93 % 1008,2 hPa 0,0 l/m 0 min 0 min 0,0 UV-I 0 W/m 0,0 km/h (0 Bft)
29.03.2013 02:10 -0,8 C -2,1 C 93 % 1008,2 hPa 0,0 l/m 0 min 0 min 0,0 UV-I 0 W/m 2,6 km/h (1 Bft)
29.03.2013 02:12 -0,8 C -2,1 C 93 % 1008,1 hPa 0,0 l/m 0 min 0 min 0,0 UV-I 0 W/m 5,1 km/h (1 Bft)
29.03.2013 02:14 -0,8 C -2,1 C 93 % 1008,1 hPa 0,0 l/m 0 min 0 min 0,0 UV-I 0 W/m 0,0 km/h (0 Bft)
29.03.2013 02:16 -0,8 C -2,1 C 94 % 1008,1 hPa 0,0 l/m 0 min 0 min 0,0 UV-I 0 W/m 0,0 km/h (0 Bft)
29.03.2013 02:18 -0,8 C -2,1 C 94 % 1008,2 hPa 0,0 l/m 0 min 0 min 0,0 UV-I 0 W/m 0,0 km/h (0 Bft)
29.03.2013 02:20 -0,8 C -2,1 C 94 % 1008,2 hPa 0,0 l/m 0 min 0 min 0,0 UV-I 0 W/m 0,0 km/h (0 Bft)
29.03.2013 02:22 -0,8 C -2,1 C 94 % 1008,3 hPa 0,0 l/m 0 min 0 min 0,0 UV-I 0 W/m 7,7 km/h (2 Bft)
29.03.2013 02:24 -0,8 C -2,1 C 94 % 1008,2 hPa 0,0 l/m 0 min 0 min 0,0 UV-I 0 W/m 5,1 km/h (1 Bft)
29.03.2013 02:26 -0,8 C -2,1 C 94 % 1008,2 hPa 0,0 l/m 0 min 0 min 0,0 UV-I 0 W/m 7,7 km/h (2 Bft)
29.03.2013 02:28 -0,8 C -2,1 C 94 % 1008,1 hPa 0,0 l/m 0 min 0 min 0,0 UV-I 0 W/m 7,7 km/h (2 Bft)
29.03.2013 02:30 -0,9 C -2,1 C 94 % 1008,1 hPa 0,0 l/m 0 min 0 min 0,0 UV-I 0 W/m 7,7 km/h (2 Bft)
29.03.2013 02:32 -0,9 C -2,1 C 94 % 1008,1 hPa 0,0 l/m 0 min 0 min 0,0 UV-I 0 W/m 5,1 km/h (1 Bft)
29.03.2013 02:34 -0,9 C -2,1 C 94 % 1008,1 hPa 0,0 l/m 0 min 0 min 0,0 UV-I 0 W/m 7,7 km/h (2 Bft)
29.03.2013 02:36 -0,9 C -2,1 C 94 % 1008,3 hPa 0,0 l/m 0 min 0 min 0,0 UV-I 0 W/m 0,0 km/h (0 Bft)
29.03.2013 02:38 -0,9 C -2,1 C 94 % 1008,2 hPa 0,0 l/m 0 min 0 min 0,0 UV-I 0 W/m 2,6 km/h (1 Bft)
29.03.2013 02:40 -0,9 C -2,1 C 94 % 1008,1 hPa 0,0 l/m 0 min 0 min 0,0 UV-I 0 W/m 7,7 km/h (2 Bft)
29.03.2013 02:42 -0,9 C -2,1 C 94 % 1008,1 hPa 0,0 l/m 0 min 0 min 0,0 UV-I 0 W/m 7,7 km/h (2 Bft)
29.03.2013 02:44 -0,9 C -2,1 C 94 % 1008,2 hPa 0,0 l/m 0 min 0 min 0,0 UV-I 0 W/m 10,3 km/h (2 Bft)
29.03.2013 02:46 -0,9 C -2,1 C 94 % 1008,2 hPa 0,0 l/m 0 min 0 min 0,0 UV-I 0 W/m 5,1 km/h (1 Bft)
29.03.2013 02:48 -1,0 C -2,1 C 94 % 1008,2 hPa 0,0 l/m 0 min 0 min 0,0 UV-I 0 W/m 7,7 km/h (2 Bft)
29.03.2013 02:50 -1,0 C -2,1 C 94 % 1008,1 hPa 0,0 l/m 0 min 0 min 0,0 UV-I 0 W/m 0,0 km/h (0 Bft)
29.03.2013 02:52 -1,0 C -2,1 C 95 % 1008,2 hPa 0,0 l/m 0 min 0 min 0,0 UV-I 0 W/m 0,0 km/h (0 Bft)
29.03.2013 02:54 -1,0 C -2,1 C 95 % 1008,3 hPa 0,0 l/m 0 min 0 min 0,0 UV-I 0 W/m 5,1 km/h (1 Bft)
29.03.2013 02:56 -1,0 C -2,1 C 95 % 1008,2 hPa 0,0 l/m 0 min 0 min 0,0 UV-I 0 W/m 7,7 km/h (2 Bft)
29.03.2013 02:58 -1,0 C -2,1 C 95 % 1008,2 hPa 0,0 l/m 0 min 0 min 0,0 UV-I 0 W/m 5,1 km/h (1 Bft)
29.03.2013 03:00 -1,1 C -2,1 C 95 % 1008,2 hPa 0,0 l/m 0 min 0 min 0,0 UV-I 0 W/m 5,1 km/h (1 Bft)
29.03.2013 03:02 -1,1 C -2,1 C 95 % 1008,2 hPa 0,0 l/m 0 min 0 min 0,0 UV-I 0 W/m 2,6 km/h (1 Bft)
29.03.2013 03:06 -1,1 C -2,1 C 95 % 1008,1 hPa 0,0 l/m 0 min 0 min 0,0 UV-I 0 W/m 2,6 km/h (1 Bft)
29.03.2013 03:08 -1,1 C -2,1 C 95 % 1008,1 hPa 0,0 l/m 0 min 0 min 0,0 UV-I 0 W/m 0,0 km/h (0 Bft)
29.03.2013 03:10 -1,1 C -2,1 C 95 % 1008,1 hPa 0,0 l/m 0 min 0 min 0,0 UV-I 0 W/m 0,0 km/h (0 Bft)
29.03.2013 03:12 -1,1 C -2,1 C 95 % 1008,1 hPa 0,0 l/m 0 min 0 min 0,0 UV-I 0 W/m 2,6 km/h (1 Bft)
29.03.2013 03:14 -1,1 C -2,1 C 95 % 1008,1 hPa 0,0 l/m 0 min 0 min 0,0 UV-I 0 W/m 0,0 km/h (0 Bft)
29.03.2013 03:16 -1,1 C -2,1 C 95 % 1008,2 hPa 0,0 l/m 0 min 0 min 0,0 UV-I 0 W/m 7,7 km/h (2 Bft)
29.03.2013 03:18 -1,1 C -2,1 C 95 % 1008,1 hPa 0,0 l/m 0 min 0 min 0,0 UV-I 0 W/m 0,0 km/h (0 Bft)
29.03.2013 03:20 -1,1 C -2,1 C 95 % 1008,1 hPa 0,0 l/m 0 min 0 min 0,0 UV-I 0 W/m 0,0 km/h (0 Bft)
29.03.2013 03:22 -1,1 C -2,1 C 95 % 1008,1 hPa 0,0 l/m 0 min 0 min 0,0 UV-I 0 W/m 0,0 km/h (0 Bft)
29.03.2013 03:24 -1,1 C -2,1 C 95 % 1008,2 hPa 0,0 l/m 0 min 0 min 0,0 UV-I 0 W/m 2,6 km/h (1 Bft)
29.03.2013 03:26 -1,1 C -2,1 C 95 % 1008,2 hPa 0,0 l/m 0 min 0 min 0,0 UV-I 0 W/m 0,0 km/h (0 Bft)
29.03.2013 03:28 -1,1 C -2,1 C 95 % 1008,2 hPa 0,0 l/m 0 min 0 min 0,0 UV-I 0 W/m 5,1 km/h (1 Bft)
29.03.2013 03:30 -1,1 C -2,1 C 95 % 1008,1 hPa 0,0 l/m 0 min 0 min 0,0 UV-I 0 W/m 5,1 km/h (1 Bft)
29.03.2013 03:32 -1,1 C -2,1 C 95 % 1008,1 hPa 0,0 l/m 0 min 0 min 0,0 UV-I 0 W/m 5,1 km/h (1 Bft)
29.03.2013 03:34 -1,1 C -2,1 C 95 % 1008,1 hPa 0,0 l/m 0 min 0 min 0,0 UV-I 0 W/m 5,1 km/h (1 Bft)
29.03.2013 03:36 -1,1 C -2,1 C 95 % 1008,1 hPa 0,0 l/m 0 min 0 min 0,0 UV-I 0 W/m 0,0 km/h (0 Bft)
29.03.2013 03:38 -1,1 C -2,1 C 95 % 1008,1 hPa 0,0 l/m 0 min 0 min 0,0 UV-I 0 W/m 5,1 km/h (1 Bft)
29.03.2013 03:40 -1,1 C -2,1 C 95 % 1008,1 hPa 0,0 l/m 0 min 0 min 0,0 UV-I 0 W/m 0,0 km/h (0 Bft)
29.03.2013 03:42 -1,1 C -2,1 C 95 % 1008,1 hPa 0,0 l/m 0 min 0 min 0,0 UV-I 0 W/m 2,6 km/h (1 Bft)
29.03.2013 03:44 -1,1 C -2,1 C 95 % 1008,2 hPa 0,0 l/m 0 min 0 min 0,0 UV-I 0 W/m 0,0 km/h (0 Bft)
29.03.2013 03:46 -1,1 C -2,1 C 95 % 1008,2 hPa 0,0 l/m 0 min 0 min 0,0 UV-I 0 W/m 0,0 km/h (0 Bft)
29.03.2013 03:48 -1,1 C -2,1 C 95 % 1008,2 hPa 0,0 l/m 0 min 0 min 0,0 UV-I 0 W/m 2,6 km/h (1 Bft)
29.03.2013 03:50 -1,1 C -2,1 C 95 % 1008,2 hPa 0,0 l/m 0 min 0 min 0,0 UV-I 0 W/m 0,0 km/h (0 Bft)
29.03.2013 03:52 -1,1 C -2,1 C 95 % 1008,2 hPa 0,0 l/m 0 min 0 min 0,0 UV-I 0 W/m 0,0 km/h (0 Bft)
29.03.2013 03:54 -1,1 C -2,1 C 95 % 1008,2 hPa 0,0 l/m 0 min 0 min 0,0 UV-I 0 W/m 0,0 km/h (0 Bft)
29.03.2013 03:56 -1,1 C -2,1 C 95 % 1008,2 hPa 0,0 l/m 0 min 0 min 0,0 UV-I 0 W/m 10,3 km/h (2 Bft)
29.03.2013 03:58 -1,1 C -2,1 C 95 % 1008,2 hPa 0,0 l/m 0 min 0 min 0,0 UV-I 0 W/m 7,7 km/h (2 Bft)
29.03.2013 04:00 -1,1 C -2,1 C 95 % 1008,2 hPa 0,0 l/m 0 min 0 min 0,0 UV-I 0 W/m 7,7 km/h (2 Bft)
29.03.2013 04:02 -1,2 C -2,1 C 95 % 1008,2 hPa 0,0 l/m 0 min 0 min 0,0 UV-I 0 W/m 0,0 km/h (0 Bft)
29.03.2013 04:06 -1,2 C -2,1 C 95 % 1008,3 hPa 0,0 l/m 0 min 0 min 0,0 UV-I 0 W/m 5,1 km/h (1 Bft)
29.03.2013 04:12 -1,2 C -2,1 C 95 % 1008,4 hPa 0,0 l/m 0 min 0 min 0,0 UV-I 0 W/m 2,6 km/h (1 Bft)
29.03.2013 04:14 -1,2 C -2,1 C 95 % 1008,5 hPa 0,0 l/m 0 min 0 min 0,0 UV-I 0 W/m 0,0 km/h (0 Bft)
29.03.2013 04:16 -1,2 C -2,1 C 95 % 1008,4 hPa 0,0 l/m 0 min 0 min 0,0 UV-I 0 W/m 0,0 km/h (0 Bft)
29.03.2013 04:18 -1,2 C -2,1 C 95 % 1008,4 hPa 0,0 l/m 0 min 0 min 0,0 UV-I 0 W/m 0,0 km/h (0 Bft)
29.03.2013 04:20 -1,2 C -2,1 C 95 % 1008,4 hPa 0,0 l/m 0 min 0 min 0,0 UV-I 0 W/m 0,0 km/h (0 Bft)
29.03.2013 04:22 -1,2 C -2,1 C 95 % 1008,4 hPa 0,0 l/m 0 min 0 min 0,0 UV-I 0 W/m 0,0 km/h (0 Bft)
29.03.2013 04:24 -1,2 C -2,1 C 96 % 1008,4 hPa 0,0 l/m 0 min 0 min 0,0 UV-I 0 W/m 0,0 km/h (0 Bft)
29.03.2013 04:26 -1,2 C -2,1 C 96 % 1008,5 hPa 0,0 l/m 0 min 0 min 0,0 UV-I 0 W/m 0,0 km/h (0 Bft)
29.03.2013 04:28 -1,2 C -2,1 C 96 % 1008,3 hPa 0,0 l/m 0 min 0 min 0,0 UV-I 0 W/m 0,0 km/h (0 Bft)
29.03.2013 04:30 -1,1 C -2,1 C 96 % 1008,2 hPa 0,0 l/m 0 min 0 min 0,0 UV-I 0 W/m 2,6 km/h (1 Bft)
29.03.2013 04:32 -1,2 C -2,1 C 96 % 1008,3 hPa 0,0 l/m 0 min 0 min 0,0 UV-I 0 W/m 0,0 km/h (0 Bft)
29.03.2013 04:34 -1,1 C -2,1 C 96 % 1008,2 hPa 0,0 l/m 0 min 0 min 0,0 UV-I 0 W/m 2,6 km/h (1 Bft)
29.03.2013 04:36 -1,1 C -2,1 C 96 % 1008,2 hPa 0,0 l/m 0 min 0 min 0,0 UV-I 0 W/m 0,0 km/h (0 Bft)
29.03.2013 04:38 -1,2 C -2,1 C 96 % 1008,2 hPa 0,0 l/m 0 min 0 min 0,0 UV-I 0 W/m 0,0 km/h (0 Bft)
29.03.2013 04:40 -1,2 C -2,1 C 96 % 1008,2 hPa 0,0 l/m 0 min 0 min 0,0 UV-I 0 W/m 5,1 km/h (1 Bft)
29.03.2013 04:42 -1,2 C -2,1 C 96 % 1008,2 hPa 0,0 l/m 0 min 0 min 0,0 UV-I 0 W/m 7,7 km/h (2 Bft)
29.03.2013 04:44 -1,2 C -2,1 C 96 % 1008,2 hPa 0,0 l/m 0 min 0 min 0,0 UV-I 0 W/m 10,3 km/h (2 Bft)
29.03.2013 04:46 -1,2 C -2,1 C 95 % 1008,1 hPa 0,0 l/m 0 min 0 min 0,0 UV-I 0 W/m 10,3 km/h (2 Bft)
29.03.2013 04:48 -1,2 C -2,1 C 95 % 1008,1 hPa 0,0 l/m 0 min 0 min 0,0 UV-I 0 W/m 2,6 km/h (1 Bft)
29.03.2013 04:50 -1,2 C -2,1 C 95 % 1008,1 hPa 0,0 l/m 0 min 0 min 0,0 UV-I 0 W/m 0,0 km/h (0 Bft)
29.03.2013 04:52 -1,2 C -2,1 C 95 % 1008,2 hPa 0,0 l/m 0 min 0 min 0,0 UV-I 0 W/m 0,0 km/h (0 Bft)
29.03.2013 04:54 -1,2 C -2,1 C 95 % 1008,2 hPa 0,0 l/m 0 min 0 min 0,0 UV-I 0 W/m 0,0 km/h (0 Bft)
29.03.2013 04:56 -1,2 C -2,1 C 95 % 1008,1 hPa 0,0 l/m 0 min 0 min 0,0 UV-I 0 W/m 0,0 km/h (0 Bft)
29.03.2013 04:58 -1,2 C -2,1 C 95 % 1008,2 hPa 0,0 l/m 0 min 0 min 0,0 UV-I 0 W/m 0,0 km/h (0 Bft)
29.03.2013 05:00 -1,2 C -2,1 C 95 % 1008,2 hPa 0,0 l/m 0 min 0 min 0,0 UV-I 0 W/m 0,0 km/h (0 Bft)
29.03.2013 05:02 -1,2 C -2,1 C 95 % 1008,2 hPa 0,0 l/m 0 min 0 min 0,0 UV-I 0 W/m 0,0 km/h (0 Bft)
29.03.2013 05:06 -1,2 C -2,1 C 95 % 1008,2 hPa 0,0 l/m 0 min 0 min 0,0 UV-I 0 W/m 0,0 km/h (0 Bft)
29.03.2013 05:08 -1,2 C -2,1 C 95 % 1008,2 hPa 0,0 l/m 0 min 0 min 0,0 UV-I 0 W/m 0,0 km/h (0 Bft)
29.03.2013 05:10 -1,2 C -2,1 C 96 % 1008,2 hPa 0,0 l/m 0 min 0 min 0,0 UV-I 0 W/m 2,6 km/h (1 Bft)
29.03.2013 05:12 -1,2 C -2,1 C 96 % 1008,2 hPa 0,0 l/m 0 min 0 min 0,0 UV-I 0 W/m 0,0 km/h (0 Bft)
29.03.2013 05:14 -1,2 C -2,1 C 96 % 1008,2 hPa 0,0 l/m 0 min 0 min 0,0 UV-I 0 W/m 0,0 km/h (0 Bft)
29.03.2013 05:16 -1,2 C -2,1 C 96 % 1008,2 hPa 0,0 l/m 0 min 0 min 0,0 UV-I 0 W/m 0,0 km/h (0 Bft)
29.03.2013 05:18 -1,2 C -2,1 C 95 % 1008,3 hPa 0,0 l/m 0 min 0 min 0,0 UV-I 0 W/m 7,7 km/h (2 Bft)
29.03.2013 05:20 -1,3 C -2,7 C 96 % 1008,2 hPa 0,0 l/m 0 min 0 min 0,0 UV-I 0 W/m 2,6 km/h (1 Bft)
29.03.2013 05:22 -1,3 C -2,7 C 96 % 1008,2 hPa 0,0 l/m 0 min 0 min 0,0 UV-I 0 W/m 0,0 km/h (0 Bft)
29.03.2013 05:24 -1,3 C -2,7 C 96 % 1008,2 hPa 0,0 l/m 0 min 0 min 0,0 UV-I 0 W/m 0,0 km/h (0 Bft)
29.03.2013 05:26 -1,3 C -2,7 C 96 % 1008,3 hPa 0,0 l/m 0 min 0 min 0,0 UV-I 0 W/m 2,6 km/h (1 Bft)
29.03.2013 05:28 -1,3 C -2,7 C 96 % 1008,2 hPa 0,0 l/m 0 min 0 min 0,0 UV-I 0 W/m 0,0 km/h (0 Bft)
29.03.2013 05:30 -1,3 C -2,7 C 96 % 1008,3 hPa 0,0 l/m 0 min 0 min 0,0 UV-I 0 W/m 0,0 km/h (0 Bft)
29.03.2013 05:32 -1,3 C -2,7 C 96 % 1008,3 hPa 0,0 l/m 0 min 0 min 0,0 UV-I 0 W/m 0,0 km/h (0 Bft)
29.03.2013 05:34 -1,3 C -2,7 C 96 % 1008,3 hPa 0,0 l/m 0 min 0 min 0,0 UV-I 0 W/m 0,0 km/h (0 Bft)
29.03.2013 05:36 -1,3 C -2,7 C 96 % 1008,3 hPa 0,0 l/m 0 min 0 min 0,0 UV-I 0 W/m 0,0 km/h (0 Bft)
29.03.2013 05:38 -1,3 C -2,7 C 96 % 1008,3 hPa 0,0 l/m 0 min 0 min 0,0 UV-I 0 W/m 0,0 km/h (0 Bft)
29.03.2013 05:40 -1,3 C -2,7 C 96 % 1008,4 hPa 0,0 l/m 0 min 0 min 0,0 UV-I 0 W/m 0,0 km/h (0 Bft)
29.03.2013 05:42 -1,4 C -2,7 C 96 % 1008,4 hPa 0,0 l/m 0 min 0 min 0,0 UV-I 0 W/m 0,0 km/h (0 Bft)
29.03.2013 05:44 -1,4 C -2,7 C 96 % 1008,4 hPa 0,0 l/m 0 min 0 min 0,0 UV-I 0 W/m 0,0 km/h (0 Bft)
29.03.2013 05:46 -1,4 C -2,7 C 96 % 1008,4 hPa 0,0 l/m 0 min 0 min 0,0 UV-I 0 W/m 0,0 km/h (0 Bft)
29.03.2013 05:48 -1,4 C -2,7 C 96 % 1008,4 hPa 0,0 l/m 0 min 0 min 0,0 UV-I 0 W/m 0,0 km/h (0 Bft)
29.03.2013 05:50 -1,4 C -2,7 C 96 % 1008,4 hPa 0,0 l/m 0 min 0 min 0,0 UV-I 0 W/m 0,0 km/h (0 Bft)
29.03.2013 05:52 -1,4 C -2,7 C 96 % 1008,4 hPa 0,0 l/m 0 min 0 min 0,0 UV-I 0 W/m 0,0 km/h (0 Bft)
29.03.2013 05:54 -1,4 C -2,7 C 96 % 1008,4 hPa 0,0 l/m 0 min 0 min 0,0 UV-I 0 W/m 12,9 km/h (3 Bft)
29.03.2013 05:56 -1,4 C -2,7 C 95 % 1008,3 hPa 0,0 l/m 0 min 0 min 0,0 UV-I 0 W/m 10,3 km/h (2 Bft)
29.03.2013 05:58 -1,5 C -2,7 C 95 % 1008,4 hPa 0,0 l/m 0 min 0 min 0,0 UV-I 0 W/m 7,7 km/h (2 Bft)
29.03.2013 06:00 -1,5 C -2,7 C 95 % 1008,4 hPa 0,0 l/m 0 min 0 min 0,0 UV-I 0 W/m 5,1 km/h (1 Bft)
29.03.2013 06:02 -1,5 C -2,7 C 95 % 1008,4 hPa 0,0 l/m 0 min 0 min 0,0 UV-I 0 W/m 0,0 km/h (0 Bft)
29.03.2013 06:06 -1,6 C -2,7 C 95 % 1008,5 hPa 0,0 l/m 0 min 0 min 0,0 UV-I 0 W/m 10,3 km/h (2 Bft)
29.03.2013 06:08 -1,6 C -2,7 C 95 % 1008,4 hPa 0,0 l/m 0 min 0 min 0,0 UV-I 0 W/m 10,3 km/h (2 Bft)
29.03.2013 06:10 -1,6 C -2,7 C 95 % 1008,5 hPa 0,0 l/m 0 min 0 min 0,0 UV-I 0 W/m 2,6 km/h (1 Bft)
29.03.2013 06:12 -1,6 C -2,7 C 95 % 1008,5 hPa 0,0 l/m 0 min 0 min 0,0 UV-I 0 W/m 7,7 km/h (2 Bft)
29.03.2013 06:14 -1,6 C -2,7 C 95 % 1008,4 hPa 0,0 l/m 0 min 0 min 0,0 UV-I 0 W/m 7,7 km/h (2 Bft)
29.03.2013 06:16 -1,6 C -2,7 C 95 % 1008,5 hPa 0,0 l/m 0 min 0 min 0,0 UV-I 0 W/m 0,0 km/h (0 Bft)
29.03.2013 06:18 -1,7 C -2,7 C 95 % 1008,5 hPa 0,0 l/m 0 min 0 min 0,0 UV-I 0 W/m 7,7 km/h (2 Bft)
29.03.2013 06:20 -1,7 C -2,7 C 95 % 1008,5 hPa 0,0 l/m 0 min 0 min 0,0 UV-I 0 W/m 7,7 km/h (2 Bft)
29.03.2013 06:22 -1,7 C -2,7 C 95 % 1008,5 hPa 0,0 l/m 0 min 0 min 0,0 UV-I 0 W/m 7,7 km/h (2 Bft)
29.03.2013 06:24 -1,7 C -2,7 C 95 % 1008,5 hPa 0,0 l/m 0 min 0 min 0,0 UV-I 0 W/m 7,7 km/h (2 Bft)
29.03.2013 06:26 -1,7 C -2,7 C 95 % 1008,5 hPa 0,0 l/m 0 min 0 min 0,0 UV-I 0 W/m 5,1 km/h (1 Bft)
29.03.2013 06:28 -1,7 C -2,7 C 95 % 1008,6 hPa 0,0 l/m 0 min 0 min 0,0 UV-I 0 W/m 10,3 km/h (2 Bft)
29.03.2013 06:30 -1,7 C -2,7 C 95 % 1008,7 hPa 0,0 l/m 0 min 0 min 0,0 UV-I 0 W/m 7,7 km/h (2 Bft)
29.03.2013 06:32 -1,7 C -2,7 C 95 % 1008,7 hPa 0,0 l/m 0 min 0 min 0,0 UV-I 0 W/m 5,1 km/h (1 Bft)
29.03.2013 06:34 -1,7 C -2,7 C 95 % 1008,8 hPa 0,0 l/m 0 min 0 min 0,0 UV-I 0 W/m 10,3 km/h (2 Bft)
29.03.2013 06:36 -1,7 C -2,7 C 95 % 1008,7 hPa 0,0 l/m 0 min 0 min 0,0 UV-I 0 W/m 7,7 km/h (2 Bft)
29.03.2013 06:38 -1,7 C -2,7 C 95 % 1008,7 hPa 0,0 l/m 0 min 0 min 0,0 UV-I 0 W/m 7,7 km/h (2 Bft)
29.03.2013 06:40 -1,7 C -2,7 C 95 % 1008,6 hPa 0,0 l/m 0 min 0 min 0,0 UV-I 5 W/m 5,1 km/h (1 Bft)
29.03.2013 06:42 -1,7 C -2,7 C 95 % 1008,7 hPa 0,0 l/m 0 min 0 min 0,0 UV-I 5 W/m 0,0 km/h (0 Bft)
29.03.2013 06:44 -1,7 C -2,7 C 95 % 1008,7 hPa 0,0 l/m 0 min 0 min 0,0 UV-I 5 W/m 0,0 km/h (0 Bft)
29.03.2013 06:46 -1,7 C -2,7 C 95 % 1008,7 hPa 0,0 l/m 0 min 0 min 0,0 UV-I 5 W/m 7,7 km/h (2 Bft)
29.03.2013 06:48 -1,7 C -2,7 C 95 % 1008,7 hPa 0,0 l/m 0 min 0 min 0,0 UV-I 7 W/m 0,0 km/h (0 Bft)
29.03.2013 06:50 -1,7 C -2,7 C 95 % 1008,7 hPa 0,0 l/m 0 min 0 min 0,0 UV-I 7 W/m 7,7 km/h (2 Bft)
29.03.2013 06:52 -1,7 C -2,7 C 95 % 1008,6 hPa 0,0 l/m 0 min 0 min 0,0 UV-I 7 W/m 0,0 km/h (0 Bft)
29.03.2013 06:54 -1,7 C -2,7 C 95 % 1008,7 hPa 0,0 l/m 0 min 0 min 0,0 UV-I 9 W/m 0,0 km/h (0 Bft)
29.03.2013 06:56 -1,7 C -2,7 C 95 % 1008,6 hPa 0,0 l/m 0 min 0 min 0,0 UV-I 9 W/m 7,7 km/h (2 Bft)
29.03.2013 06:58 -1,7 C -2,7 C 95 % 1008,7 hPa 0,0 l/m 0 min 0 min 0,0 UV-I 11 W/m 5,1 km/h (1 Bft)
29.03.2013 07:00 -1,7 C -2,7 C 95 % 1008,7 hPa 0,0 l/m 0 min 0 min 0,0 UV-I 11 W/m 2,6 km/h (1 Bft)
29.03.2013 07:02 -1,7 C -2,7 C 95 % 1008,8 hPa 0,0 l/m 0 min 0 min 0,0 UV-I 9 W/m 7,7 km/h (2 Bft)
29.03.2013 07:06 -1,7 C -2,1 C 95 % 1008,8 hPa 0,0 l/m 0 min 0 min 0,0 UV-I 9 W/m 2,6 km/h (1 Bft)
29.03.2013 07:08 -1,7 C -2,7 C 95 % 1008,8 hPa 0,0 l/m 0 min 0 min 0,0 UV-I 9 W/m 5,1 km/h (1 Bft)
29.03.2013 07:10 -1,7 C -2,7 C 95 % 1008,7 hPa 0,0 l/m 0 min 0 min 0,0 UV-I 9 W/m 5,1 km/h (1 Bft)
29.03.2013 07:12 -1,7 C -2,1 C 95 % 1008,7 hPa 0,0 l/m 0 min 0 min 0,0 UV-I 11 W/m 2,6 km/h (1 Bft)
29.03.2013 07:14 -1,7 C -2,1 C 95 % 1008,7 hPa 0,0 l/m 0 min 0 min 0,0 UV-I 11 W/m 5,1 km/h (1 Bft)
29.03.2013 07:16 -1,7 C -2,1 C 95 % 1008,8 hPa 0,0 l/m 0 min 0 min 0,0 UV-I 11 W/m 5,1 km/h (1 Bft)
29.03.2013 07:18 -1,7 C -2,1 C 95 % 1008,8 hPa 0,0 l/m 0 min 0 min 0,0 UV-I 12 W/m 2,6 km/h (1 Bft)
29.03.2013 07:20 -1,7 C -2,1 C 95 % 1008,8 hPa 0,0 l/m 0 min 0 min 0,0 UV-I 14 W/m 0,0 km/h (0 Bft)
29.03.2013 07:22 -1,7 C -2,1 C 95 % 1008,8 hPa 0,0 l/m 0 min 0 min 0,0 UV-I 16 W/m 2,6 km/h (1 Bft)
29.03.2013 07:24 -1,6 C -2,1 C 95 % 1008,8 hPa 0,0 l/m 0 min 0 min 0,0 UV-I 16 W/m 0,0 km/h (0 Bft)
29.03.2013 07:26 -1,7 C -2,1 C 95 % 1008,8 hPa 0,0 l/m 0 min 0 min 0,0 UV-I 16 W/m 0,0 km/h (0 Bft)
29.03.2013 07:28 -1,6 C -2,1 C 94 % 1008,8 hPa 0,0 l/m 0 min 0 min 0,0 UV-I 16 W/m 2,6 km/h (1 Bft)
29.03.2013 07:30 -1,6 C -2,1 C 94 % 1008,9 hPa 0,0 l/m 0 min 0 min 0,0 UV-I 18 W/m 0,0 km/h (0 Bft)
29.03.2013 07:32 -1,6 C -2,1 C 94 % 1008,8 hPa 0,0 l/m 0 min 0 min 0,0 UV-I 18 W/m 0,0 km/h (0 Bft)
29.03.2013 07:34 -1,6 C -2,1 C 94 % 1008,9 hPa 0,0 l/m 0 min 0 min 0,0 UV-I 16 W/m 2,6 km/h (1 Bft)
29.03.2013 07:36 -1,6 C -2,1 C 94 % 1008,9 hPa 0,0 l/m 0 min 0 min 0,0 UV-I 16 W/m 0,0 km/h (0 Bft)
29.03.2013 07:38 -1,6 C -2,1 C 94 % 1008,9 hPa 0,0 l/m 0 min 0 min 0,0 UV-I 14 W/m 0,0 km/h (0 Bft)
29.03.2013 07:40 -1,6 C -2,1 C 94 % 1008,9 hPa 0,0 l/m 0 min 0 min 0,0 UV-I 16 W/m 0,0 km/h (0 Bft)
29.03.2013 07:42 -1,6 C -2,1 C 94 % 1008,9 hPa 0,0 l/m 0 min 0 min 0,0 UV-I 16 W/m 0,0 km/h (0 Bft)
29.03.2013 07:44 -1,6 C -2,1 C 94 % 1008,9 hPa 0,0 l/m 0 min 0 min 0,0 UV-I 16 W/m 0,0 km/h (0 Bft)
29.03.2013 07:46 -1,6 C -2,1 C 94 % 1008,8 hPa 0,0 l/m 0 min 0 min 0,0 UV-I 18 W/m 2,6 km/h (1 Bft)
29.03.2013 07:48 -1,6 C -2,1 C 94 % 1008,9 hPa 0,0 l/m 0 min 0 min 0,0 UV-I 18 W/m 0,0 km/h (0 Bft)
29.03.2013 07:50 -1,6 C -2,1 C 94 % 1008,9 hPa 0,0 l/m 0 min 0 min 0,0 UV-I 18 W/m 2,6 km/h (1 Bft)
29.03.2013 07:52 -1,6 C -2,1 C 94 % 1008,9 hPa 0,0 l/m 0 min 0 min 0,0 UV-I 18 W/m 5,1 km/h (1 Bft)
29.03.2013 07:54 -1,6 C -2,1 C 94 % 1008,9 hPa 0,0 l/m 0 min 0 min 0,0 UV-I 18 W/m 0,0 km/h (0 Bft)
29.03.2013 07:56 -1,6 C -2,1 C 94 % 1008,9 hPa 0,0 l/m 0 min 0 min 0,0 UV-I 19 W/m 0,0 km/h (0 Bft)
29.03.2013 07:58 -1,6 C -2,1 C 94 % 1008,9 hPa 0,0 l/m 0 min 0 min 0,0 UV-I 21 W/m 2,6 km/h (1 Bft)
29.03.2013 08:00 -1,6 C -2,1 C 94 % 1008,9 hPa 0,0 l/m 0 min 0 min 0,0 UV-I 21 W/m 7,7 km/h (2 Bft)
29.03.2013 08:02 -1,6 C -2,1 C 93 % 1008,8 hPa 0,0 l/m 0 min 0 min 0,0 UV-I 21 W/m 7,7 km/h (2 Bft)
29.03.2013 08:06 -1,6 C -2,1 C 93 % 1009,0 hPa 0,0 l/m 0 min 0 min 0,0 UV-I 25 W/m 5,1 km/h (1 Bft)
29.03.2013 08:08 -1,5 C -2,1 C 93 % 1008,9 hPa 0,0 l/m 0 min 0 min 0,0 UV-I 26 W/m 2,6 km/h (1 Bft)
29.03.2013 08:10 -1,5 C -2,1 C 93 % 1009,0 hPa 0,0 l/m 0 min 0 min 0,0 UV-I 26 W/m 5,1 km/h (1 Bft)
29.03.2013 08:12 -1,5 C -2,1 C 93 % 1008,9 hPa 0,0 l/m 0 min 0 min 0,0 UV-I 26 W/m 0,0 km/h (0 Bft)
29.03.2013 08:14 -1,5 C -2,1 C 93 % 1009,0 hPa 0,0 l/m 0 min 0 min 0,0 UV-I 26 W/m 0,0 km/h (0 Bft)
29.03.2013 08:16 -1,5 C -2,1 C 93 % 1008,9 hPa 0,0 l/m 0 min 0 min 0,0 UV-I 28 W/m 0,0 km/h (0 Bft)
29.03.2013 08:18 -1,5 C -2,1 C 93 % 1008,9 hPa 0,0 l/m 0 min 0 min 0,0 UV-I 26 W/m 0,0 km/h (0 Bft)
29.03.2013 08:20 -1,5 C -2,1 C 92 % 1008,9 hPa 0,0 l/m 0 min 0 min 0,0 UV-I 26 W/m 2,6 km/h (1 Bft)
29.03.2013 08:22 -1,5 C -2,1 C 93 % 1009,0 hPa 0,0 l/m 0 min 0 min 0,0 UV-I 26 W/m 2,6 km/h (1 Bft)
29.03.2013 08:24 -1,4 C -2,1 C 92 % 1009,0 hPa 0,0 l/m 0 min 0 min 0,0 UV-I 26 W/m 7,7 km/h (2 Bft)
29.03.2013 08:26 -1,4 C -2,1 C 92 % 1009,0 hPa 0,0 l/m 0 min 0 min 0,0 UV-I 26 W/m 10,3 km/h (2 Bft)
29.03.2013 08:28 -1,5 C -2,1 C 92 % 1009,0 hPa 0,0 l/m 0 min 0 min 0,0 UV-I 30 W/m 10,3 km/h (2 Bft)
29.03.2013 08:30 -1,5 C -2,1 C 92 % 1008,9 hPa 0,0 l/m 0 min 0 min 0,0 UV-I 30 W/m 5,1 km/h (1 Bft)
29.03.2013 08:32 -1,4 C -2,1 C 91 % 1008,9 hPa 0,0 l/m 0 min 0 min 0,0 UV-I 32 W/m 2,6 km/h (1 Bft)
29.03.2013 08:34 -1,4 C -2,1 C 92 % 1008,9 hPa 0,0 l/m 0 min 0 min 0,0 UV-I 32 W/m 0,0 km/h (0 Bft)
29.03.2013 08:36 -1,4 C -2,1 C 92 % 1009,0 hPa 0,0 l/m 0 min 0 min 0,0 UV-I 35 W/m 7,7 km/h (2 Bft)
29.03.2013 08:38 -1,4 C -2,1 C 91 % 1009,0 hPa 0,0 l/m 0 min 0 min 0,0 UV-I 37 W/m 7,7 km/h (2 Bft)
29.03.2013 08:40 -1,4 C -2,1 C 91 % 1009,0 hPa 0,0 l/m 0 min 0 min 0,0 UV-I 39 W/m 12,9 km/h (3 Bft)
29.03.2013 08:42 -1,4 C -2,1 C 91 % 1009,0 hPa 0,0 l/m 0 min 0 min 0,0 UV-I 39 W/m 0,0 km/h (0 Bft)
29.03.2013 08:44 -1,4 C -1,6 C 91 % 1008,9 hPa 0,0 l/m 0 min 0 min 0,0 UV-I 40 W/m 7,7 km/h (2 Bft)
29.03.2013 08:46 -1,4 C -2,1 C 91 % 1008,9 hPa 0,0 l/m 0 min 0 min 0,0 UV-I 44 W/m 7,7 km/h (2 Bft)
29.03.2013 08:48 -1,4 C -1,6 C 91 % 1008,9 hPa 0,0 l/m 0 min 0 min 0,0 UV-I 49 W/m 7,7 km/h (2 Bft)
29.03.2013 08:50 -1,4 C -1,6 C 91 % 1009,0 hPa 0,0 l/m 0 min 0 min 0,0 UV-I 56 W/m 7,7 km/h (2 Bft)
29.03.2013 08:52 -1,4 C -2,1 C 91 % 1009,0 hPa 0,0 l/m 0 min 0 min 0,0 UV-I 72 W/m 10,3 km/h (2 Bft)
29.03.2013 08:54 -1,4 C -1,6 C 91 % 1009,0 hPa 0,0 l/m 0 min 0 min 0,0 UV-I 74 W/m 5,1 km/h (1 Bft)
29.03.2013 08:56 -1,4 C -1,6 C 91 % 1009,0 hPa 0,0 l/m 0 min 0 min 0,0 UV-I 79 W/m 5,1 km/h (1 Bft)
29.03.2013 08:58 -1,4 C -1,6 C 90 % 1008,9 hPa 0,0 l/m 0 min 0 min 0,0 UV-I 79 W/m 0,0 km/h (0 Bft)
29.03.2013 09:00 -1,4 C -1,6 C 90 % 1009,0 hPa 0,0 l/m 0 min 0 min 0,0 UV-I 81 W/m 5,1 km/h (1 Bft)
29.03.2013 09:02 -1,4 C -1,6 C 90 % 1009,0 hPa 0,0 l/m 0 min 0 min 0,0 UV-I 84 W/m 0,0 km/h (0 Bft)
29.03.2013 09:06 -1,3 C -1,0 C 90 % 1008,9 hPa 0,0 l/m 0 min 0 min 0,0 UV-I 88 W/m 0,0 km/h (0 Bft)
29.03.2013 09:08 -1,3 C -1,0 C 90 % 1009,0 hPa 0,0 l/m 0 min 0 min 0,0 UV-I 91 W/m 2,6 km/h (1 Bft)
29.03.2013 09:10 -1,3 C -1,0 C 90 % 1009,0 hPa 0,0 l/m 0 min 0 min 0,0 UV-I 95 W/m 0,0 km/h (0 Bft)
29.03.2013 09:12 -1,3 C -1,0 C 90 % 1009,0 hPa 0,0 l/m 0 min 0 min 0,0 UV-I 95 W/m 0,0 km/h (0 Bft)
29.03.2013 09:14 -1,2 C -1,0 C 90 % 1009,0 hPa 0,0 l/m 0 min 0 min 0,0 UV-I 91 W/m 0,0 km/h (0 Bft)
29.03.2013 09:16 -1,2 C -1,0 C 90 % 1009,0 hPa 0,0 l/m 0 min 0 min 0,0 UV-I 90 W/m 0,0 km/h (0 Bft)
29.03.2013 09:18 -1,2 C -1,0 C 90 % 1009,0 hPa 0,0 l/m 0 min 0 min 0,0 UV-I 90 W/m 2,6 km/h (1 Bft)
29.03.2013 09:20 -1,1 C -1,0 C 90 % 1009,0 hPa 0,0 l/m 0 min 0 min 0,0 UV-I 90 W/m 0,0 km/h (0 Bft)
29.03.2013 09:22 -1,1 C -1,0 C 90 % 1009,0 hPa 0,0 l/m 0 min 0 min 0,0 UV-I 84 W/m 0,0 km/h (0 Bft)
29.03.2013 09:24 -1,1 C -1,0 C 90 % 1009,0 hPa 0,0 l/m 0 min 0 min 0,0 UV-I 81 W/m 7,7 km/h (2 Bft)
29.03.2013 09:26 -1,1 C -1,6 C 89 % 1009,0 hPa 0,0 l/m 0 min 0 min 0,0 UV-I 81 W/m 7,7 km/h (2 Bft)
29.03.2013 09:28 -1,1 C -1,6 C 89 % 1009,0 hPa 0,0 l/m 0 min 0 min 0,0 UV-I 81 W/m 7,7 km/h (2 Bft)
29.03.2013 09:30 -1,1 C -1,0 C 89 % 1009,0 hPa 0,0 l/m 0 min 0 min 0,0 UV-I 91 W/m 2,6 km/h (1 Bft)
29.03.2013 09:32 -1,0 C -1,0 C 89 % 1008,9 hPa 0,0 l/m 0 min 0 min 0,0 UV-I 128 W/m 0,0 km/h (0 Bft)
29.03.2013 09:34 -0,9 C -0,4 C 89 % 1008,9 hPa 0,0 l/m 2 min 0 min 0,0 UV-I 301 W/m 0,0 km/h (0 Bft)
29.03.2013 09:36 -0,9 C -0,4 C 89 % 1009,0 hPa 0,0 l/m 2 min 0 min 0,0 UV-I 297 W/m 0,0 km/h (0 Bft)
29.03.2013 09:38 -0,8 C -0,4 C 89 % 1009,0 hPa 0,0 l/m 2 min 0 min 0,0 UV-I 315 W/m 0,0 km/h (0 Bft)
29.03.2013 09:40 -0,7 C 0,1 C 89 % 1009,0 hPa 0,0 l/m 2 min 0 min 0,0 UV-I 332 W/m 0,0 km/h (0 Bft)
29.03.2013 09:42 -0,7 C 0,1 C 89 % 1009,0 hPa 0,0 l/m 2 min 0 min 0,0 UV-I 316 W/m 0,0 km/h (0 Bft)
29.03.2013 09:44 -0,6 C 0,1 C 89 % 1009,0 hPa 0,0 l/m 2 min 0 min 0,0 UV-I 336 W/m 0,0 km/h (0 Bft)
29.03.2013 09:46 -0,5 C 0,1 C 89 % 1009,0 hPa 0,0 l/m 2 min 0 min 0,0 UV-I 345 W/m 0,0 km/h (0 Bft)
29.03.2013 09:48 -0,4 C 0,7 C 89 % 1009,0 hPa 0,0 l/m 2 min 0 min 0,0 UV-I 362 W/m 5,1 km/h (1 Bft)
29.03.2013 09:50 -0,3 C 1,2 C 89 % 1008,9 hPa 0,2 l/m 0 min 0 min 0,0 UV-I 229 W/m 2,6 km/h (1 Bft)
29.03.2013 09:52 -0,2 C 0,7 C 89 % 1009,0 hPa 0,0 l/m 0 min 0 min 0,0 UV-I 232 W/m 7,7 km/h (2 Bft)
29.03.2013 09:54 -0,2 C 0,7 C 88 % 1009,0 hPa 0,0 l/m 0 min 0 min 0,0 UV-I 264 W/m 0,0 km/h (0 Bft)
29.03.2013 09:56 -0,1 C 0,7 C 87 % 1009,0 hPa 0,0 l/m 2 min 0 min 0,0 UV-I 306 W/m 0,0 km/h (0 Bft)
29.03.2013 09:58 0,0 C 0,7 C 87 % 1009,0 hPa 0,0 l/m 0 min 0 min 0,0 UV-I 202 W/m 0,0 km/h (0 Bft)
29.03.2013 10:00 0,1 C 0,7 C 87 % 1009,0 hPa 0,0 l/m 0 min 0 min 0,0 UV-I 169 W/m 7,7 km/h (2 Bft)
29.03.2013 10:02 0,1 C 0,1 C 86 % 1009,0 hPa 0,0 l/m 0 min 0 min 0,0 UV-I 151 W/m 0,0 km/h (0 Bft)
29.03.2013 10:06 0,2 C 0,1 C 85 % 1009,0 hPa 0,0 l/m 0 min 0 min 0,0 UV-I 162 W/m 7,7 km/h (2 Bft)
29.03.2013 10:08 0,2 C 0,7 C 85 % 1009,0 hPa 0,0 l/m 0 min 0 min 0,0 UV-I 179 W/m 0,0 km/h (0 Bft)
29.03.2013 10:10 0,2 C 0,7 C 85 % 1009,0 hPa 0,0 l/m 0 min 0 min 0,0 UV-I 204 W/m 0,0 km/h (0 Bft)
29.03.2013 10:12 0,3 C 0,7 C 85 % 1009,0 hPa 0,0 l/m 0 min 0 min 0,0 UV-I 207 W/m 2,6 km/h (1 Bft)
29.03.2013 10:14 0,3 C 0,7 C 84 % 1009,0 hPa 0,0 l/m 0 min 0 min 0,0 UV-I 227 W/m 0,0 km/h (0 Bft)
29.03.2013 10:16 0,3 C 0,7 C 84 % 1009,0 hPa 0,0 l/m 0 min 0 min 0,0 UV-I 253 W/m 0,0 km/h (0 Bft)
29.03.2013 10:18 0,3 C 1,2 C 84 % 1008,9 hPa 0,0 l/m 0 min 0 min 0,0 UV-I 287 W/m 0,0 km/h (0 Bft)
29.03.2013 10:20 0,4 C 1,2 C 84 % 1008,9 hPa 0,0 l/m 2 min 0 min 0,0 UV-I 355 W/m 5,1 km/h (1 Bft)
29.03.2013 10:22 0,4 C 1,8 C 84 % 1009,0 hPa 0,0 l/m 0 min 0 min 0,0 UV-I 288 W/m 7,7 km/h (2 Bft)
29.03.2013 10:24 0,5 C 1,2 C 84 % 1008,9 hPa 0,0 l/m 0 min 0 min 0,0 UV-I 264 W/m 10,3 km/h (2 Bft)
29.03.2013 10:26 0,5 C 1,2 C 83 % 1009,0 hPa 0,0 l/m 2 min 0 min 0,0 UV-I 362 W/m 12,9 km/h (3 Bft)
29.03.2013 10:28 0,4 C 1,2 C 83 % 1008,9 hPa 0,0 l/m 0 min 0 min 0,0 UV-I 283 W/m 7,7 km/h (2 Bft)
29.03.2013 10:30 0,4 C 1,2 C 83 % 1008,9 hPa 0,0 l/m 0 min 0 min 0,0 UV-I 269 W/m 10,3 km/h (2 Bft)
29.03.2013 10:32 0,4 C 0,7 C 82 % 1008,9 hPa 0,0 l/m 0 min 0 min 0,0 UV-I 213 W/m 10,3 km/h (2 Bft)
29.03.2013 10:34 0,4 C 0,7 C 82 % 1008,8 hPa 0,0 l/m 0 min 0 min 0,0 UV-I 207 W/m 7,7 km/h (2 Bft)
29.03.2013 10:36 0,4 C 0,7 C 82 % 1008,8 hPa 0,0 l/m 0 min 0 min 0,0 UV-I 216 W/m 10,3 km/h (2 Bft)
29.03.2013 10:38 0,4 C 0,7 C 82 % 1008,8 hPa 0,0 l/m 0 min 0 min 0,0 UV-I 223 W/m 2,6 km/h (1 Bft)
29.03.2013 10:40 0,4 C 1,2 C 83 % 1008,8 hPa 0,0 l/m 0 min 0 min 0,0 UV-I 301 W/m 0,0 km/h (0 Bft)
29.03.2013 10:42 0,6 C 1,8 C 83 % 1008,8 hPa 0,0 l/m 2 min 0 min 0,5 UV-I 394 W/m 5,1 km/h (1 Bft)
29.03.2013 10:44 0,6 C 1,2 C 83 % 1008,7 hPa 0,0 l/m 2 min 0 min 0,0 UV-I 367 W/m 10,3 km/h (2 Bft)
29.03.2013 10:46 0,7 C 1,2 C 82 % 1008,8 hPa 0,0 l/m 0 min 0 min 0,5 UV-I 274 W/m 7,7 km/h (2 Bft)
29.03.2013 10:48 0,7 C 1,2 C 82 % 1008,8 hPa 0,0 l/m 0 min 0 min 0,0 UV-I 221 W/m 7,7 km/h (2 Bft)
29.03.2013 10:50 0,7 C 1,2 C 82 % 1008,7 hPa 0,0 l/m 0 min 0 min 0,7 UV-I 221 W/m 2,6 km/h (1 Bft)
29.03.2013 10:52 0,7 C 1,2 C 82 % 1008,7 hPa 0,0 l/m 2 min 0 min 0,7 UV-I 403 W/m 7,7 km/h (2 Bft)
29.03.2013 10:54 0,8 C 1,8 C 81 % 1008,6 hPa 0,0 l/m 2 min 0 min 0,7 UV-I 464 W/m 0,0 km/h (0 Bft)
29.03.2013 10:56 0,8 C 2,3 C 81 % 1008,6 hPa 0,0 l/m 2 min 0 min 0,5 UV-I 417 W/m 0,0 km/h (0 Bft)
29.03.2013 10:58 0,9 C 2,3 C 82 % 1008,6 hPa 0,0 l/m 2 min 0 min 0,0 UV-I 410 W/m 0,0 km/h (0 Bft)
29.03.2013 11:00 1,0 C 2,3 C 82 % 1008,6 hPa 0,0 l/m 0 min 0 min 0,0 UV-I 179 W/m 7,7 km/h (2 Bft)
29.03.2013 11:02 1,1 C 1,8 C 82 % 1008,5 hPa 0,0 l/m 0 min 0 min 0,0 UV-I 125 W/m 7,7 km/h (2 Bft)
29.03.2013 11:06 1,2 C 0,7 C 81 % 1008,6 hPa 0,0 l/m 0 min 0 min 0,0 UV-I 118 W/m 12,9 km/h (3 Bft)
29.03.2013 11:08 1,2 C 0,7 C 81 % 1008,6 hPa 0,0 l/m 0 min 0 min 0,0 UV-I 118 W/m 0,0 km/h (0 Bft)
29.03.2013 11:10 1,1 C 0,7 C 81 % 1008,6 hPa 0,0 l/m 0 min 0 min 0,0 UV-I 132 W/m 0,0 km/h (0 Bft)
29.03.2013 11:12 1,1 C 0,7 C 81 % 1008,6 hPa 0,0 l/m 0 min 0 min 0,0 UV-I 178 W/m 0,0 km/h (0 Bft)
29.03.2013 11:14 1,1 C 1,2 C 81 % 1008,6 hPa 0,0 l/m 0 min 0 min 0,7 UV-I 248 W/m 0,0 km/h (0 Bft)
29.03.2013 11:16 1,1 C 1,8 C 81 % 1008,6 hPa 0,0 l/m 0 min 0 min 0,8 UV-I 332 W/m 7,7 km/h (2 Bft)
29.03.2013 11:18 1,2 C 2,3 C 81 % 1008,5 hPa 0,0 l/m 2 min 0 min 1,1 UV-I 589 W/m 0,0 km/h (0 Bft)
29.03.2013 11:20 1,2 C 2,3 C 81 % 1008,6 hPa 0,0 l/m 0 min 0 min 0,0 UV-I 313 W/m 0,0 km/h (0 Bft)
29.03.2013 11:22 1,3 C 2,3 C 81 % 1008,5 hPa 0,0 l/m 0 min 0 min 0,0 UV-I 230 W/m 2,6 km/h (1 Bft)
29.03.2013 11:24 1,3 C 2,3 C 80 % 1008,5 hPa 0,0 l/m 0 min 0 min 0,0 UV-I 167 W/m 0,0 km/h (0 Bft)
29.03.2013 11:26 1,3 C 1,8 C 79 % 1008,5 hPa 0,0 l/m 0 min 0 min 0,0 UV-I 149 W/m 0,0 km/h (0 Bft)
29.03.2013 11:28 1,3 C 1,2 C 79 % 1008,5 hPa 0,0 l/m 0 min 0 min 0,0 UV-I 142 W/m 7,7 km/h (2 Bft)
29.03.2013 11:30 1,3 C 1,2 C 78 % 1008,5 hPa 0,0 l/m 0 min 0 min 0,0 UV-I 142 W/m 0,0 km/h (0 Bft)
29.03.2013 11:32 1,3 C 1,2 C 78 % 1008,5 hPa 0,0 l/m 0 min 0 min 0,0 UV-I 149 W/m 5,1 km/h (1 Bft)
29.03.2013 11:34 1,3 C 1,2 C 78 % 1008,5 hPa 0,0 l/m 0 min 0 min 0,0 UV-I 155 W/m 7,7 km/h (2 Bft)
29.03.2013 11:36 1,3 C 1,2 C 78 % 1008,5 hPa 0,0 l/m 0 min 0 min 0,0 UV-I 163 W/m 5,1 km/h (1 Bft)
29.03.2013 11:38 1,3 C 1,8 C 78 % 1008,5 hPa 0,0 l/m 0 min 0 min 0,0 UV-I 172 W/m 0,0 km/h (0 Bft)
29.03.2013 11:40 1,3 C 1,8 C 78 % 1008,5 hPa 0,0 l/m 0 min 0 min 0,0 UV-I 183 W/m 0,0 km/h (0 Bft)
29.03.2013 11:42 1,3 C 1,8 C 78 % 1008,5 hPa 0,0 l/m 0 min 0 min 0,0 UV-I 186 W/m 0,0 km/h (0 Bft)
29.03.2013 11:44 1,3 C 1,8 C 78 % 1008,5 hPa 0,0 l/m 0 min 0 min 0,0 UV-I 176 W/m 0,0 km/h (0 Bft)
29.03.2013 11:46 1,3 C 1,8 C 78 % 1008,6 hPa 0,0 l/m 0 min 0 min 0,0 UV-I 162 W/m 0,0 km/h (0 Bft)
29.03.2013 11:48 1,3 C 1,8 C 77 % 1008,5 hPa 0,0 l/m 0 min 0 min 0,0 UV-I 141 W/m 0,0 km/h (0 Bft)
29.03.2013 11:50 1,4 C 1,8 C 76 % 1008,5 hPa 0,0 l/m 0 min 0 min 0,0 UV-I 125 W/m 0,0 km/h (0 Bft)
29.03.2013 11:52 1,4 C 1,8 C 76 % 1008,4 hPa 0,0 l/m 0 min 0 min 0,0 UV-I 116 W/m 5,1 km/h (1 Bft)
29.03.2013 11:54 1,4 C 1,2 C 76 % 1008,5 hPa 0,0 l/m 0 min 0 min 0,0 UV-I 104 W/m 0,0 km/h (0 Bft)
29.03.2013 11:56 1,4 C 1,2 C 74 % 1008,5 hPa 0,0 l/m 0 min 0 min 0,0 UV-I 95 W/m 2,6 km/h (1 Bft)
29.03.2013 11:58 1,4 C 0,7 C 74 % 1008,5 hPa 0,0 l/m 0 min 0 min 0,0 UV-I 93 W/m 0,0 km/h (0 Bft)
29.03.2013 12:00 1,3 C 1,2 C 75 % 1008,5 hPa 0,0 l/m 0 min 0 min 0,0 UV-I 93 W/m 0,0 km/h (0 Bft)
29.03.2013 12:02 1,4 C 1,2 C 76 % 1008,6 hPa 0,0 l/m 0 min 0 min 0,0 UV-I 93 W/m 7,7 km/h (2 Bft)
29.03.2013 12:06 1,3 C 0,7 C 77 % 1008,5 hPa 0,0 l/m 0 min 0 min 0,0 UV-I 97 W/m 7,7 km/h (2 Bft)
29.03.2013 12:08 1,3 C 0,7 C 77 % 1008,5 hPa 0,0 l/m 0 min 0 min 0,0 UV-I 100 W/m 2,6 km/h (1 Bft)
29.03.2013 12:10 1,3 C 0,7 C 77 % 1008,4 hPa 0,0 l/m 0 min 0 min 0,0 UV-I 116 W/m 7,7 km/h (2 Bft)
29.03.2013 12:12 1,3 C 1,2 C 77 % 1008,5 hPa 0,0 l/m 0 min 0 min 0,0 UV-I 123 W/m 5,1 km/h (1 Bft)
29.03.2013 12:14 1,3 C 1,2 C 78 % 1008,5 hPa 0,0 l/m 0 min 0 min 0,0 UV-I 127 W/m 5,1 km/h (1 Bft)
29.03.2013 12:16 1,3 C 1,2 C 78 % 1008,5 hPa 0,0 l/m 0 min 0 min 0,0 UV-I 125 W/m 0,0 km/h (0 Bft)
29.03.2013 12:18 1,3 C 1,2 C 78 % 1008,5 hPa 0,0 l/m 0 min 0 min 0,0 UV-I 120 W/m 2,6 km/h (1 Bft)
29.03.2013 12:20 1,3 C 1,2 C 78 % 1008,5 hPa 0,0 l/m 0 min 0 min 0,0 UV-I 120 W/m 0,0 km/h (0 Bft)
29.03.2013 12:22 1,3 C 1,2 C 78 % 1008,4 hPa 0,0 l/m 0 min 0 min 0,0 UV-I 123 W/m 0,0 km/h (0 Bft)
29.03.2013 12:24 1,3 C 1,2 C 78 % 1008,4 hPa 0,0 l/m 0 min 0 min 0,0 UV-I 121 W/m 7,7 km/h (2 Bft)
29.03.2013 12:26 1,3 C 1,2 C 78 % 1008,4 hPa 0,0 l/m 0 min 0 min 0,0 UV-I 118 W/m 7,7 km/h (2 Bft)
29.03.2013 12:28 1,3 C 0,7 C 78 % 1008,4 hPa 0,0 l/m 0 min 0 min 0,0 UV-I 113 W/m 0,0 km/h (0 Bft)
29.03.2013 12:30 1,3 C 0,7 C 78 % 1008,4 hPa 0,0 l/m 0 min 0 min 0,0 UV-I 111 W/m 0,0 km/h (0 Bft)
29.03.2013 12:32 1,3 C 1,2 C 78 % 1008,4 hPa 0,0 l/m 0 min 0 min 0,0 UV-I 113 W/m 10,3 km/h (2 Bft)
29.03.2013 12:34 1,3 C 1,2 C 78 % 1008,4 hPa 0,0 l/m 0 min 0 min 0,0 UV-I 114 W/m 7,7 km/h (2 Bft)
29.03.2013 12:36 1,3 C 1,2 C 78 % 1008,4 hPa 0,0 l/m 0 min 0 min 0,0 UV-I 118 W/m 10,3 km/h (2 Bft)
29.03.2013 12:38 1,3 C 1,2 C 78 % 1008,4 hPa 0,0 l/m 0 min 0 min 0,0 UV-I 121 W/m 5,1 km/h (1 Bft)
29.03.2013 12:40 1,3 C 1,2 C 78 % 1008,4 hPa 0,0 l/m 0 min 0 min 0,0 UV-I 123 W/m 7,7 km/h (2 Bft)
29.03.2013 12:42 1,3 C 1,2 C 78 % 1008,4 hPa 0,0 l/m 0 min 0 min 0,0 UV-I 127 W/m 0,0 km/h (0 Bft)
29.03.2013 12:44 1,3 C 1,2 C 78 % 1008,3 hPa 0,0 l/m 0 min 0 min 0,0 UV-I 127 W/m 5,1 km/h (1 Bft)
29.03.2013 12:46 1,3 C 1,2 C 78 % 1008,3 hPa 0,0 l/m 0 min 0 min 0,0 UV-I 120 W/m 0,0 km/h (0 Bft)
29.03.2013 12:48 1,3 C 1,2 C 78 % 1008,3 hPa 0,0 l/m 0 min 0 min 0,0 UV-I 116 W/m 0,0 km/h (0 Bft)
29.03.2013 12:50 1,3 C 1,2 C 78 % 1008,4 hPa 0,0 l/m 0 min 0 min 0,0 UV-I 111 W/m 0,0 km/h (0 Bft)
29.03.2013 12:52 1,3 C 1,2 C 78 % 1008,4 hPa 0,0 l/m 0 min 0 min 0,0 UV-I 107 W/m 7,7 km/h (2 Bft)
29.03.2013 12:54 1,3 C 1,2 C 79 % 1008,3 hPa 0,0 l/m 0 min 0 min 0,0 UV-I 107 W/m 7,7 km/h (2 Bft)
29.03.2013 12:56 1,3 C 1,2 C 79 % 1008,4 hPa 0,0 l/m 0 min 0 min 0,0 UV-I 105 W/m 0,0 km/h (0 Bft)
29.03.2013 12:58 1,3 C 1,2 C 78 % 1008,4 hPa 0,0 l/m 0 min 0 min 0,0 UV-I 102 W/m 2,6 km/h (1 Bft)
29.03.2013 13:00 1,3 C 1,2 C 78 % 1008,4 hPa 0,0 l/m 0 min 0 min 0,0 UV-I 102 W/m 5,1 km/h (1 Bft)
29.03.2013 13:02 1,3 C 1,2 C 78 % 1008,4 hPa 0,0 l/m 0 min 0 min 0,0 UV-I 100 W/m 0,0 km/h (0 Bft)
29.03.2013 13:05 1,3 C 1,2 C 78 % 1008,4 hPa 0,0 l/m 0 min 0 min 0,0 UV-I 100 W/m 2,6 km/h (1 Bft)
29.03.2013 13:06 1,3 C 1,2 C 77 % 1008,4 hPa 0,0 l/m 0 min 0 min 0,0 UV-I 100 W/m 0,0 km/h (0 Bft)
29.03.2013 13:08 1,3 C 1,2 C 77 % 1008,4 hPa 0,0 l/m 0 min 0 min 0,0 UV-I 102 W/m 0,0 km/h (0 Bft)
29.03.2013 13:10 1,3 C 1,2 C 77 % 1008,5 hPa 0,0 l/m 0 min 0 min 0,0 UV-I 100 W/m 0,0 km/h (0 Bft)
29.03.2013 13:12 1,3 C 1,2 C 77 % 1008,4 hPa 0,0 l/m 0 min 0 min 0,0 UV-I 97 W/m 5,1 km/h (1 Bft)
29.03.2013 13:14 1,3 C 1,2 C 77 % 1008,4 hPa 0,0 l/m 0 min 0 min 0,0 UV-I 95 W/m 10,3 km/h (2 Bft)
29.03.2013 13:16 1,3 C 1,2 C 77 % 1008,4 hPa 0,0 l/m 0 min 0 min 0,0 UV-I 100 W/m 10,3 km/h (2 Bft)
29.03.2013 13:18 1,3 C 1,2 C 77 % 1008,4 hPa 0,0 l/m 0 min 0 min 0,0 UV-I 105 W/m 5,1 km/h (1 Bft)
29.03.2013 13:20 1,3 C 1,2 C 77 % 1008,4 hPa 0,0 l/m 0 min 0 min 0,0 UV-I 111 W/m 2,6 km/h (1 Bft)
29.03.2013 13:22 1,3 C 1,2 C 77 % 1008,4 hPa 0,0 l/m 0 min 0 min 0,0 UV-I 113 W/m 5,1 km/h (1 Bft)
29.03.2013 13:24 1,3 C 1,2 C 77 % 1008,4 hPa 0,0 l/m 0 min 0 min 0,0 UV-I 116 W/m 5,1 km/h (1 Bft)
29.03.2013 13:26 1,3 C 1,2 C 77 % 1008,4 hPa 0,0 l/m 0 min 0 min 0,0 UV-I 135 W/m 5,1 km/h (1 Bft)
29.03.2013 13:28 1,3 C 1,8 C 77 % 1008,4 hPa 0,0 l/m 0 min 0 min 0,0 UV-I 156 W/m 0,0 km/h (0 Bft)
29.03.2013 13:30 1,4 C 1,8 C 77 % 1008,4 hPa 0,0 l/m 0 min 0 min 0,0 UV-I 172 W/m 0,0 km/h (0 Bft)
29.03.2013 13:32 1,4 C 2,3 C 77 % 1008,4 hPa 0,0 l/m 0 min 0 min 0,0 UV-I 193 W/m 0,0 km/h (0 Bft)
29.03.2013 13:34 1,5 C 2,3 C 77 % 1008,4 hPa 0,0 l/m 0 min 0 min 0,0 UV-I 223 W/m 0,0 km/h (0 Bft)
29.03.2013 13:36 1,6 C 2,9 C 77 % 1008,4 hPa 0,0 l/m 0 min 0 min 0,5 UV-I 267 W/m 0,0 km/h (0 Bft)
29.03.2013 13:38 1,7 C 3,4 C 77 % 1008,4 hPa 0,0 l/m 0 min 0 min 0,7 UV-I 339 W/m 7,7 km/h (2 Bft)
29.03.2013 13:40 1,8 C 3,4 C 77 % 1008,4 hPa 0,0 l/m 2 min 0 min 0,9 UV-I 422 W/m 7,7 km/h (2 Bft)
29.03.2013 13:42 1,9 C 4,0 C 77 % 1008,4 hPa 0,0 l/m 2 min 0 min 1,0 UV-I 524 W/m 7,7 km/h (2 Bft)
29.03.2013 13:44 2,0 C 4,0 C 76 % 1008,4 hPa 0,0 l/m 2 min 0 min 0,9 UV-I 413 W/m 10,3 km/h (2 Bft)
29.03.2013 13:46 2,1 C 4,0 C 76 % 1008,4 hPa 0,0 l/m 2 min 0 min 1,1 UV-I 550 W/m 10,3 km/h (2 Bft)
29.03.2013 13:48 2,2 C 4,0 C 75 % 1008,4 hPa 0,0 l/m 2 min 0 min 1,1 UV-I 587 W/m 10,3 km/h (2 Bft)
29.03.2013 13:50 2,3 C 4,0 C 76 % 1008,4 hPa 0,0 l/m 2 min 0 min 1,2 UV-I 552 W/m 10,3 km/h (2 Bft)
29.03.2013 13:52 2,4 C 4,0 C 75 % 1008,4 hPa 0,0 l/m 2 min 0 min 1,2 UV-I 619 W/m 12,9 km/h (3 Bft)
29.03.2013 13:54 2,5 C 4,0 C 74 % 1008,4 hPa 0,0 l/m 2 min 0 min 1,3 UV-I 622 W/m 7,7 km/h (2 Bft)
29.03.2013 13:56 2,6 C 4,0 C 74 % 1008,2 hPa 0,0 l/m 2 min 0 min 1,2 UV-I 636 W/m 7,7 km/h (2 Bft)
29.03.2013 13:58 2,7 C 4,6 C 74 % 1008,2 hPa 0,0 l/m 2 min 0 min 1,2 UV-I 636 W/m 5,1 km/h (1 Bft)
29.03.2013 14:00 2,8 C 4,6 C 74 % 1008,2 hPa 0,0 l/m 2 min 0 min 1,0 UV-I 561 W/m 7,7 km/h (2 Bft)
29.03.2013 14:02 3,1 C 5,1 C 75 % 1008,2 hPa 0,0 l/m 2 min 0 min 0,8 UV-I 468 W/m 12,9 km/h (3 Bft)
29.03.2013 14:06 3,2 C 4,6 C 71 % 1008,2 hPa 0,0 l/m 2 min 0 min 0,6 UV-I 403 W/m 12,9 km/h (3 Bft)
29.03.2013 14:08 3,2 C 4,0 C 70 % 1008,2 hPa 0,0 l/m 2 min 0 min 0,5 UV-I 352 W/m 15,4 km/h (3 Bft)
29.03.2013 14:10 3,2 C 4,0 C 70 % 1008,2 hPa 0,0 l/m 0 min 0 min 0,5 UV-I 341 W/m 12,9 km/h (3 Bft)
29.03.2013 14:12 3,2 C 3,4 C 70 % 1008,2 hPa 0,0 l/m 0 min 0 min 0,0 UV-I 294 W/m 18,0 km/h (3 Bft)
29.03.2013 14:14 3,1 C 3,4 C 70 % 1008,2 hPa 0,0 l/m 0 min 0 min 0,0 UV-I 257 W/m 12,9 km/h (3 Bft)
29.03.2013 14:16 3,0 C 3,4 C 70 % 1008,3 hPa 0,0 l/m 0 min 0 min 0,0 UV-I 232 W/m 12,9 km/h (3 Bft)
29.03.2013 14:18 3,0 C 3,4 C 70 % 1008,2 hPa 0,0 l/m 0 min 0 min 0,0 UV-I 214 W/m 2,6 km/h (1 Bft)
29.03.2013 14:20 2,9 C 3,4 C 70 % 1008,2 hPa 0,0 l/m 0 min 0 min 0,0 UV-I 200 W/m 0,0 km/h (0 Bft)
29.03.2013 14:22 2,9 C 2,9 C 70 % 1008,1 hPa 0,0 l/m 0 min 0 min 0,0 UV-I 195 W/m 18,0 km/h (3 Bft)
29.03.2013 14:24 2,8 C 2,9 C 70 % 1008,1 hPa 0,0 l/m 0 min 0 min 0,0 UV-I 181 W/m 12,9 km/h (3 Bft)
29.03.2013 14:26 2,8 C 2,3 C 70 % 1008,1 hPa 0,0 l/m 0 min 0 min 0,0 UV-I 171 W/m 15,4 km/h (3 Bft)
29.03.2013 14:28 2,6 C 2,3 C 70 % 1008,1 hPa 0,0 l/m 0 min 0 min 0,0 UV-I 167 W/m 10,3 km/h (2 Bft)
29.03.2013 14:30 2,6 C 2,3 C 70 % 1008,1 hPa 0,0 l/m 0 min 0 min 0,0 UV-I 169 W/m 0,0 km/h (0 Bft)
29.03.2013 14:32 2,5 C 2,3 C 71 % 1008,1 hPa 0,0 l/m 0 min 0 min 0,0 UV-I 174 W/m 7,7 km/h (2 Bft)
29.03.2013 14:34 2,4 C 2,3 C 72 % 1008,2 hPa 0,0 l/m 0 min 0 min 0,0 UV-I 183 W/m 10,3 km/h (2 Bft)
29.03.2013 14:36 2,4 C 2,3 C 72 % 1008,1 hPa 0,0 l/m 0 min 0 min 0,0 UV-I 197 W/m 10,3 km/h (2 Bft)
29.03.2013 14:38 2,3 C 2,3 C 72 % 1008,1 hPa 0,0 l/m 0 min 0 min 0,0 UV-I 200 W/m 15,4 km/h (3 Bft)
29.03.2013 14:40 2,3 C 2,3 C 73 % 1008,1 hPa 0,0 l/m 0 min 0 min 0,0 UV-I 211 W/m 10,3 km/h (2 Bft)
29.03.2013 14:42 2,3 C 2,3 C 74 % 1008,1 hPa 0,0 l/m 0 min 0 min 0,0 UV-I 234 W/m 12,9 km/h (3 Bft)
29.03.2013 14:44 2,2 C 2,3 C 74 % 1008,2 hPa 0,0 l/m 0 min 0 min 0,0 UV-I 244 W/m 15,4 km/h (3 Bft)
29.03.2013 14:46 2,2 C 2,3 C 75 % 1008,1 hPa 0,0 l/m 0 min 0 min 0,0 UV-I 265 W/m 7,7 km/h (2 Bft)
29.03.2013 14:48 2,2 C 2,9 C 75 % 1008,1 hPa 0,0 l/m 0 min 0 min 0,0 UV-I 276 W/m 7,7 km/h (2 Bft)
29.03.2013 14:50 2,2 C 2,9 C 75 % 1008,2 hPa 0,0 l/m 0 min 0 min 0,0 UV-I 258 W/m 10,3 km/h (2 Bft)
29.03.2013 14:52 2,3 C 3,4 C 76 % 1008,2 hPa 0,0 l/m 0 min 0 min 0,0 UV-I 250 W/m 5,1 km/h (1 Bft)
29.03.2013 14:54 2,3 C 2,9 C 75 % 1008,2 hPa 0,0 l/m 0 min 0 min 0,0 UV-I 227 W/m 10,3 km/h (2 Bft)
29.03.2013 14:56 2,3 C 2,9 C 75 % 1008,1 hPa 0,0 l/m 0 min 0 min 0,0 UV-I 218 W/m 7,7 km/h (2 Bft)
29.03.2013 14:58 2,2 C 2,3 C 74 % 1008,1 hPa 0,0 l/m 0 min 0 min 0,0 UV-I 206 W/m 10,3 km/h (2 Bft)
29.03.2013 15:00 2,2 C 2,3 C 74 % 1008,1 hPa 0,0 l/m 0 min 0 min 0,0 UV-I 190 W/m 10,3 km/h (2 Bft)
29.03.2013 15:02 2,2 C 2,3 C 74 % 1008,1 hPa 0,0 l/m 0 min 0 min 0,0 UV-I 188 W/m 10,3 km/h (2 Bft)
29.03.2013 15:06 2,2 C 2,3 C 75 % 1008,1 hPa 0,0 l/m 0 min 0 min 0,0 UV-I 172 W/m 12,9 km/h (3 Bft)
29.03.2013 15:08 2,2 C 2,3 C 75 % 1008,0 hPa 0,0 l/m 0 min 0 min 0,0 UV-I 167 W/m 7,7 km/h (2 Bft)
29.03.2013 15:10 2,2 C 2,9 C 75 % 1008,1 hPa 0,0 l/m 0 min 0 min 0,0 UV-I 162 W/m 12,9 km/h (3 Bft)
29.03.2013 15:12 2,2 C 2,9 C 75 % 1008,0 hPa 0,0 l/m 0 min 0 min 0,0 UV-I 190 W/m 0,0 km/h (0 Bft)
29.03.2013 15:14 2,3 C 2,9 C 75 % 1008,0 hPa 0,0 l/m 0 min 0 min 0,0 UV-I 229 W/m 7,7 km/h (2 Bft)
29.03.2013 15:16 2,3 C 2,9 C 75 % 1008,0 hPa 0,0 l/m 0 min 0 min 0,0 UV-I 253 W/m 0,0 km/h (0 Bft)
29.03.2013 15:18 2,3 C 3,4 C 76 % 1008,0 hPa 0,0 l/m 0 min 0 min 0,0 UV-I 267 W/m 12,9 km/h (3 Bft)
29.03.2013 15:20 2,4 C 3,4 C 75 % 1008,0 hPa 0,0 l/m 0 min 0 min 0,0 UV-I 248 W/m 5,1 km/h (1 Bft)
29.03.2013 15:22 2,4 C 2,9 C 75 % 1008,0 hPa 0,0 l/m 0 min 0 min 0,0 UV-I 229 W/m 7,7 km/h (2 Bft)
29.03.2013 15:24 2,4 C 2,9 C 76 % 1007,9 hPa 0,0 l/m 0 min 0 min 0,0 UV-I 218 W/m 0,0 km/h (0 Bft)
29.03.2013 15:26 2,5 C 3,4 C 75 % 1008,0 hPa 0,0 l/m 0 min 0 min 0,0 UV-I 211 W/m 0,0 km/h (0 Bft)
29.03.2013 15:28 2,5 C 2,9 C 74 % 1008,0 hPa 0,0 l/m 0 min 0 min 0,0 UV-I 199 W/m 15,4 km/h (3 Bft)
29.03.2013 15:30 2,6 C 2,9 C 74 % 1007,9 hPa 0,0 l/m 0 min 0 min 0,0 UV-I 169 W/m 5,1 km/h (1 Bft)
29.03.2013 15:32 2,6 C 2,9 C 74 % 1008,0 hPa 0,0 l/m 0 min 0 min 0,0 UV-I 135 W/m 12,9 km/h (3 Bft)
29.03.2013 15:34 2,6 C 2,9 C 73 % 1008,0 hPa 0,0 l/m 0 min 0 min 0,0 UV-I 118 W/m 0,0 km/h (0 Bft)
29.03.2013 15:36 2,6 C 2,3 C 74 % 1008,0 hPa 0,0 l/m 0 min 0 min 0,0 UV-I 111 W/m 5,1 km/h (1 Bft)
29.03.2013 15:38 2,6 C 2,3 C 73 % 1008,0 hPa 0,0 l/m 0 min 0 min 0,0 UV-I 114 W/m 10,3 km/h (2 Bft)
29.03.2013 15:40 2,5 C 2,3 C 73 % 1007,9 hPa 0,0 l/m 0 min 0 min 0,0 UV-I 125 W/m 10,3 km/h (2 Bft)
29.03.2013 15:42 2,4 C 2,3 C 73 % 1007,9 hPa 0,0 l/m 0 min 0 min 0,0 UV-I 142 W/m 12,9 km/h (3 Bft)
29.03.2013 15:44 2,4 C 2,3 C 73 % 1007,9 hPa 0,0 l/m 0 min 0 min 0,0 UV-I 160 W/m 7,7 km/h (2 Bft)
29.03.2013 15:46 2,4 C 2,3 C 73 % 1008,0 hPa 0,0 l/m 0 min 0 min 0,0 UV-I 183 W/m 12,9 km/h (3 Bft)
29.03.2013 15:48 2,4 C 2,3 C 74 % 1008,0 hPa 0,0 l/m 0 min 0 min 0,0 UV-I 206 W/m 7,7 km/h (2 Bft)
29.03.2013 15:50 2,4 C 2,9 C 74 % 1008,0 hPa 0,0 l/m 0 min 0 min 0,0 UV-I 195 W/m 5,1 km/h (1 Bft)
29.03.2013 15:52 2,4 C 2,9 C 74 % 1008,0 hPa 0,0 l/m 0 min 0 min 0,0 UV-I 174 W/m 10,3 km/h (2 Bft)
29.03.2013 15:54 2,4 C 2,9 C 74 % 1007,9 hPa 0,0 l/m 0 min 0 min 0,0 UV-I 151 W/m 10,3 km/h (2 Bft)
29.03.2013 15:56 2,4 C 2,3 C 73 % 1008,0 hPa 0,0 l/m 0 min 0 min 0,0 UV-I 144 W/m 15,4 km/h (3 Bft)
29.03.2013 15:58 2,4 C 2,3 C 73 % 1007,9 hPa 0,0 l/m 0 min 0 min 0,0 UV-I 149 W/m 15,4 km/h (3 Bft)
29.03.2013 16:00 2,3 C 1,8 C 73 % 1008,0 hPa 0,0 l/m 0 min 0 min 0,0 UV-I 176 W/m 12,9 km/h (3 Bft)
29.03.2013 16:02 2,3 C 2,3 C 73 % 1007,9 hPa 0,0 l/m 0 min 0 min 0,0 UV-I 192 W/m 7,7 km/h (2 Bft)
29.03.2013 16:06 2,3 C 2,3 C 74 % 1008,1 hPa 0,0 l/m 0 min 0 min 0,0 UV-I 211 W/m 7,7 km/h (2 Bft)
29.03.2013 16:08 2,3 C 2,9 C 75 % 1008,1 hPa 0,0 l/m 0 min 0 min 0,0 UV-I 193 W/m 10,3 km/h (2 Bft)
29.03.2013 16:10 2,3 C 2,3 C 75 % 1008,1 hPa 0,0 l/m 0 min 0 min 0,0 UV-I 179 W/m 12,9 km/h (3 Bft)
29.03.2013 16:12 2,3 C 2,3 C 75 % 1008,1 hPa 0,0 l/m 0 min 0 min 0,0 UV-I 176 W/m 12,9 km/h (3 Bft)
29.03.2013 16:14 2,2 C 1,8 C 76 % 1008,1 hPa 0,0 l/m 0 min 0 min 0,0 UV-I 178 W/m 10,3 km/h (2 Bft)
29.03.2013 16:16 2,2 C 1,8 C 76 % 1008,1 hPa 0,0 l/m 0 min 0 min 0,0 UV-I 179 W/m 10,3 km/h (2 Bft)
29.03.2013 16:18 2,1 C 1,8 C 77 % 1008,2 hPa 0,0 l/m 0 min 0 min 0,0 UV-I 185 W/m 0,0 km/h (0 Bft)
29.03.2013 16:20 2,1 C 1,8 C 78 % 1008,1 hPa 0,0 l/m 0 min 0 min 0,0 UV-I 172 W/m 7,7 km/h (2 Bft)
29.03.2013 16:22 2,1 C 1,8 C 78 % 1008,1 hPa 0,0 l/m 0 min 0 min 0,0 UV-I 185 W/m 7,7 km/h (2 Bft)
29.03.2013 16:24 2,0 C 1,8 C 79 % 1008,1 hPa 0,0 l/m 0 min 0 min 0,0 UV-I 190 W/m 5,1 km/h (1 Bft)
29.03.2013 16:26 2,0 C 1,8 C 79 % 1008,1 hPa 0,0 l/m 0 min 0 min 0,0 UV-I 192 W/m 5,1 km/h (1 Bft)
29.03.2013 16:28 2,0 C 1,8 C 79 % 1008,1 hPa 0,0 l/m 0 min 0 min 0,0 UV-I 192 W/m 7,7 km/h (2 Bft)
29.03.2013 16:30 2,0 C 1,8 C 80 % 1008,1 hPa 0,0 l/m 0 min 0 min 0,0 UV-I 193 W/m 0,0 km/h (0 Bft)
29.03.2013 16:32 2,1 C 2,3 C 80 % 1008,0 hPa 0,0 l/m 0 min 0 min 0,0 UV-I 195 W/m 0,0 km/h (0 Bft)
29.03.2013 16:34 2,1 C 1,8 C 80 % 1008,0 hPa 0,0 l/m 2 min 0 min 0,0 UV-I 207 W/m 5,1 km/h (1 Bft)
29.03.2013 16:36 2,1 C 1,8 C 80 % 1008,0 hPa 0,0 l/m 2 min 0 min 0,0 UV-I 214 W/m 5,1 km/h (1 Bft)
29.03.2013 16:38 2,1 C 1,8 C 80 % 1008,0 hPa 0,0 l/m 2 min 0 min 0,0 UV-I 214 W/m 12,9 km/h (3 Bft)
29.03.2013 16:40 2,1 C 1,8 C 80 % 1007,9 hPa 0,0 l/m 2 min 0 min 0,0 UV-I 211 W/m 2,6 km/h (1 Bft)
29.03.2013 16:42 2,1 C 1,8 C 81 % 1007,9 hPa 0,0 l/m 2 min 0 min 0,0 UV-I 220 W/m 0,0 km/h (0 Bft)
29.03.2013 16:44 2,1 C 1,8 C 80 % 1008,0 hPa 0,0 l/m 2 min 0 min 0,0 UV-I 200 W/m 10,3 km/h (2 Bft)
29.03.2013 16:46 2,1 C 1,8 C 81 % 1007,9 hPa 0,0 l/m 0 min 0 min 0,0 UV-I 178 W/m 5,1 km/h (1 Bft)
29.03.2013 16:48 2,1 C 1,8 C 81 % 1007,9 hPa 0,0 l/m 0 min 0 min 0,0 UV-I 149 W/m 10,3 km/h (2 Bft)
29.03.2013 16:50 2,1 C 1,8 C 80 % 1007,9 hPa 0,0 l/m 0 min 0 min 0,0 UV-I 142 W/m 5,1 km/h (1 Bft)
29.03.2013 16:52 2,1 C 1,8 C 80 % 1007,9 hPa 0,0 l/m 0 min 0 min 0,0 UV-I 134 W/m 10,3 km/h (2 Bft)
29.03.2013 16:54 2,1 C 1,2 C 80 % 1008,0 hPa 0,0 l/m 0 min 0 min 0,0 UV-I 128 W/m 10,3 km/h (2 Bft)
29.03.2013 16:56 1,9 C 1,2 C 80 % 1007,9 hPa 0,0 l/m 0 min 0 min 0,0 UV-I 123 W/m 12,9 km/h (3 Bft)
29.03.2013 16:58 1,9 C 1,2 C 80 % 1007,9 hPa 0,0 l/m 0 min 0 min 0,0 UV-I 114 W/m 10,3 km/h (2 Bft)
29.03.2013 17:00 1,9 C 1,2 C 80 % 1007,9 hPa 0,0 l/m 0 min 0 min 0,0 UV-I 107 W/m 7,7 km/h (2 Bft)
29.03.2013 17:02 1,8 C 1,2 C 80 % 1007,9 hPa 0,0 l/m 0 min 0 min 0,0 UV-I 100 W/m 0,0 km/h (0 Bft)
29.03.2013 17:06 1,8 C 1,2 C 80 % 1008,0 hPa 0,0 l/m 0 min 0 min 0,0 UV-I 83 W/m 10,3 km/h (2 Bft)
29.03.2013 17:08 1,7 C 1,2 C 80 % 1007,9 hPa 0,0 l/m 0 min 0 min 0,0 UV-I 77 W/m 5,1 km/h (1 Bft)
29.03.2013 17:10 1,7 C 1,2 C 80 % 1008,0 hPa 0,0 l/m 0 min 0 min 0,0 UV-I 67 W/m 0,0 km/h (0 Bft)
29.03.2013 17:12 1,7 C 1,2 C 81 % 1007,9 hPa 0,0 l/m 0 min 0 min 0,0 UV-I 63 W/m 7,7 km/h (2 Bft)
29.03.2013 17:14 1,7 C 1,2 C 81 % 1007,8 hPa 0,0 l/m 0 min 0 min 0,0 UV-I 60 W/m 2,6 km/h (1 Bft)
29.03.2013 17:16 1,7 C 1,2 C 81 % 1007,8 hPa 0,0 l/m 0 min 0 min 0,0 UV-I 51 W/m 7,7 km/h (2 Bft)
29.03.2013 17:18 1,6 C 0,7 C 82 % 1007,8 hPa 0,0 l/m 0 min 0 min 0,0 UV-I 47 W/m 5,1 km/h (1 Bft)
29.03.2013 17:20 1,6 C 0,7 C 82 % 1007,8 hPa 0,0 l/m 0 min 0 min 0,0 UV-I 44 W/m 7,7 km/h (2 Bft)
29.03.2013 17:22 1,5 C 0,7 C 82 % 1007,8 hPa 0,0 l/m 0 min 0 min 0,0 UV-I 44 W/m 10,3 km/h (2 Bft)
29.03.2013 17:24 1,4 C 0,7 C 82 % 1008,0 hPa 0,0 l/m 0 min 0 min 0,0 UV-I 42 W/m 12,9 km/h (3 Bft)
29.03.2013 17:26 1,4 C 0,7 C 83 % 1007,8 hPa 0,0 l/m 0 min 0 min 0,0 UV-I 42 W/m 12,9 km/h (3 Bft)
29.03.2013 17:28 1,3 C 0,1 C 83 % 1007,7 hPa 0,0 l/m 0 min 0 min 0,0 UV-I 42 W/m 12,9 km/h (3 Bft)
29.03.2013 17:30 1,3 C 0,1 C 83 % 1007,8 hPa 0,0 l/m 0 min 0 min 0,0 UV-I 40 W/m 7,7 km/h (2 Bft)
29.03.2013 17:32 1,3 C 0,1 C 83 % 1007,8 hPa 0,0 l/m 0 min 0 min 0,0 UV-I 39 W/m 10,3 km/h (2 Bft)
29.03.2013 17:34 1,3 C 0,1 C 84 % 1007,8 hPa 0,0 l/m 0 min 0 min 0,0 UV-I 37 W/m 7,7 km/h (2 Bft)
29.03.2013 17:36 1,3 C 0,1 C 84 % 1007,8 hPa 0,0 l/m 0 min 0 min 0,0 UV-I 35 W/m 7,7 km/h (2 Bft)
29.03.2013 17:38 1,2 C 0,1 C 84 % 1007,8 hPa 0,0 l/m 0 min 0 min 0,0 UV-I 37 W/m 5,1 km/h (1 Bft)
29.03.2013 17:40 1,2 C 0,1 C 84 % 1007,9 hPa 0,0 l/m 0 min 0 min 0,0 UV-I 39 W/m 7,7 km/h (2 Bft)
29.03.2013 17:42 1,2 C 0,1 C 85 % 1007,9 hPa 0,0 l/m 0 min 0 min 0,0 UV-I 42 W/m 5,1 km/h (1 Bft)
29.03.2013 17:44 1,1 C 0,1 C 85 % 1007,8 hPa 0,0 l/m 0 min 0 min 0,0 UV-I 46 W/m 10,3 km/h (2 Bft)
29.03.2013 17:46 1,1 C 0,1 C 85 % 1007,8 hPa 0,0 l/m 0 min 0 min 0,0 UV-I 49 W/m 7,7 km/h (2 Bft)
29.03.2013 17:48 1,1 C 0,1 C 86 % 1007,8 hPa 0,0 l/m 0 min 0 min 0,0 UV-I 49 W/m 15,4 km/h (3 Bft)
29.03.2013 17:50 1,0 C 0,1 C 86 % 1007,8 hPa 0,0 l/m 0 min 0 min 0,0 UV-I 47 W/m 5,1 km/h (1 Bft)
29.03.2013 17:52 0,9 C 0,1 C 86 % 1007,9 hPa 0,0 l/m 0 min 0 min 0,0 UV-I 44 W/m 5,1 km/h (1 Bft)
29.03.2013 17:54 0,9 C -0,4 C 87 % 1007,9 hPa 0,0 l/m 0 min 0 min 0,0 UV-I 42 W/m 7,7 km/h (2 Bft)
29.03.2013 17:56 0,9 C -0,4 C 87 % 1007,9 hPa 0,0 l/m 0 min 0 min 0,0 UV-I 35 W/m 5,1 km/h (1 Bft)
29.03.2013 17:58 0,8 C -0,4 C 88 % 1007,8 hPa 0,0 l/m 0 min 0 min 0,0 UV-I 30 W/m 7,7 km/h (2 Bft)
29.03.2013 18:00 0,8 C -0,4 C 88 % 1007,9 hPa 0,0 l/m 0 min 0 min 0,0 UV-I 28 W/m 2,6 km/h (1 Bft)
29.03.2013 18:02 0,8 C -0,4 C 88 % 1007,9 hPa 0,0 l/m 0 min 0 min 0,0 UV-I 25 W/m 7,7 km/h (2 Bft)
29.03.2013 18:06 0,7 C -0,4 C 88 % 1007,8 hPa 0,0 l/m 0 min 0 min 0,0 UV-I 19 W/m 0,0 km/h (0 Bft)
29.03.2013 18:08 0,7 C -0,4 C 88 % 1007,9 hPa 0,0 l/m 0 min 0 min 0,0 UV-I 16 W/m 0,0 km/h (0 Bft)
29.03.2013 18:10 0,7 C -0,4 C 88 % 1007,9 hPa 0,0 l/m 0 min 0 min 0,0 UV-I 16 W/m 0,0 km/h (0 Bft)
29.03.2013 18:12 0,7 C -0,4 C 88 % 1007,9 hPa 0,0 l/m 0 min 0 min 0,0 UV-I 14 W/m 7,7 km/h (2 Bft)
29.03.2013 18:14 0,6 C -0,4 C 88 % 1007,9 hPa 0,0 l/m 0 min 0 min 0,0 UV-I 14 W/m 10,3 km/h (2 Bft)
29.03.2013 18:16 0,6 C -0,4 C 88 % 1007,9 hPa 0,0 l/m 0 min 0 min 0,0 UV-I 14 W/m 5,1 km/h (1 Bft)
29.03.2013 18:18 0,6 C -0,4 C 89 % 1007,9 hPa 0,0 l/m 0 min 0 min 0,0 UV-I 16 W/m 5,1 km/h (1 Bft)
29.03.2013 18:20 0,6 C -0,4 C 89 % 1007,9 hPa 0,0 l/m 0 min 0 min 0,0 UV-I 16 W/m 0,0 km/h (0 Bft)
29.03.2013 18:22 0,5 C -0,4 C 89 % 1007,9 hPa 0,0 l/m 0 min 0 min 0,0 UV-I 16 W/m 2,6 km/h (1 Bft)
29.03.2013 18:24 0,5 C -0,4 C 89 % 1007,9 hPa 0,0 l/m 0 min 0 min 0,0 UV-I 14 W/m 0,0 km/h (0 Bft)
29.03.2013 18:26 0,4 C -0,4 C 89 % 1007,9 hPa 0,0 l/m 0 min 0 min 0,0 UV-I 12 W/m 0,0 km/h (0 Bft)
29.03.2013 18:28 0,4 C -0,4 C 89 % 1007,8 hPa 0,0 l/m 0 min 0 min 0,0 UV-I 11 W/m 0,0 km/h (0 Bft)
29.03.2013 18:30 0,4 C -0,4 C 89 % 1007,9 hPa 0,0 l/m 0 min 0 min 0,0 UV-I 11 W/m 0,0 km/h (0 Bft)
29.03.2013 18:32 0,4 C -0,4 C 89 % 1007,9 hPa 0,0 l/m 0 min 0 min 0,0 UV-I 11 W/m 0,0 km/h (0 Bft)
29.03.2013 18:34 0,4 C -0,4 C 89 % 1007,9 hPa 0,0 l/m 0 min 0 min 0,0 UV-I 11 W/m 0,0 km/h (0 Bft)
29.03.2013 18:36 0,4 C -0,4 C 89 % 1007,9 hPa 0,0 l/m 0 min 0 min 0,0 UV-I 9 W/m 2,6 km/h (1 Bft)
29.03.2013 18:38 0,4 C -0,4 C 90 % 1007,9 hPa 0,0 l/m 0 min 0 min 0,0 UV-I 9 W/m 5,1 km/h (1 Bft)
29.03.2013 18:40 0,4 C -0,4 C 90 % 1007,9 hPa 0,0 l/m 0 min 0 min 0,0 UV-I 9 W/m 2,6 km/h (1 Bft)
29.03.2013 18:42 0,4 C -0,4 C 90 % 1007,9 hPa 0,0 l/m 0 min 0 min 0,0 UV-I 9 W/m 0,0 km/h (0 Bft)
29.03.2013 18:44 0,3 C -0,4 C 90 % 1007,8 hPa 0,0 l/m 0 min 0 min 0,0 UV-I 9 W/m 0,0 km/h (0 Bft)
29.03.2013 18:46 0,3 C -0,4 C 90 % 1007,9 hPa 0,0 l/m 0 min 0 min 0,0 UV-I 7 W/m 2,6 km/h (1 Bft)
29.03.2013 18:48 0,3 C -0,4 C 90 % 1007,9 hPa 0,0 l/m 0 min 0 min 0,0 UV-I 7 W/m 0,0 km/h (0 Bft)
29.03.2013 18:50 0,3 C -0,4 C 90 % 1007,9 hPa 0,0 l/m 0 min 0 min 0,0 UV-I 7 W/m 0,0 km/h (0 Bft)
29.03.2013 18:52 0,3 C -1,0 C 90 % 1007,9 hPa 0,0 l/m 0 min 0 min 0,0 UV-I 5 W/m 0,0 km/h (0 Bft)
29.03.2013 18:54 0,3 C -1,0 C 90 % 1007,9 hPa 0,0 l/m 0 min 0 min 0,0 UV-I 5 W/m 2,6 km/h (1 Bft)
29.03.2013 18:56 0,3 C -1,0 C 90 % 1007,9 hPa 0,0 l/m 0 min 0 min 0,0 UV-I 0 W/m 0,0 km/h (0 Bft)
29.03.2013 18:58 0,3 C -1,0 C 90 % 1007,9 hPa 0,0 l/m 0 min 0 min 0,0 UV-I 0 W/m 0,0 km/h (0 Bft)
29.03.2013 19:00 0,3 C -1,0 C 90 % 1007,9 hPa 0,0 l/m 0 min 0 min 0,0 UV-I 0 W/m 0,0 km/h (0 Bft)
29.03.2013 19:02 0,3 C -1,0 C 90 % 1007,9 hPa 0,0 l/m 0 min 0 min 0,0 UV-I 0 W/m 0,0 km/h (0 Bft)
29.03.2013 19:06 0,3 C -1,0 C 90 % 1007,9 hPa 0,0 l/m 0 min 0 min 0,0 UV-I 0 W/m 0,0 km/h (0 Bft)
29.03.2013 19:08 0,2 C -1,0 C 90 % 1008,0 hPa 0,0 l/m 0 min 0 min 0,0 UV-I 0 W/m 0,0 km/h (0 Bft)
29.03.2013 19:10 0,2 C -1,0 C 90 % 1008,0 hPa 0,0 l/m 0 min 0 min 0,0 UV-I 0 W/m 0,0 km/h (0 Bft)
29.03.2013 19:12 0,2 C -1,0 C 90 % 1007,9 hPa 0,0 l/m 0 min 0 min 0,0 UV-I 0 W/m 0,0 km/h (0 Bft)
29.03.2013 19:14 0,2 C -1,0 C 90 % 1007,9 hPa 0,0 l/m 0 min 0 min 0,0 UV-I 0 W/m 0,0 km/h (0 Bft)
29.03.2013 19:16 0,2 C -1,6 C 90 % 1007,9 hPa 0,0 l/m 0 min 0 min 0,0 UV-I 0 W/m 0,0 km/h (0 Bft)
29.03.2013 19:18 0,2 C -1,6 C 90 % 1007,9 hPa 0,0 l/m 0 min 0 min 0,0 UV-I 0 W/m 0,0 km/h (0 Bft)
29.03.2013 19:20 0,2 C -1,6 C 90 % 1007,9 hPa 0,0 l/m 0 min 0 min 0,0 UV-I 0 W/m 0,0 km/h (0 Bft)
29.03.2013 19:22 0,2 C -1,6 C 90 % 1008,0 hPa 0,0 l/m 0 min 0 min 0,0 UV-I 0 W/m 0,0 km/h (0 Bft)
29.03.2013 19:24 0,1 C -2,1 C 90 % 1008,0 hPa 0,0 l/m 0 min 0 min 0,0 UV-I 0 W/m 0,0 km/h (0 Bft)
29.03.2013 19:26 0,1 C -2,1 C 90 % 1008,0 hPa 0,0 l/m 0 min 0 min 0,0 UV-I 0 W/m 0,0 km/h (0 Bft)
29.03.2013 19:28 0,1 C -2,1 C 90 % 1007,9 hPa 0,0 l/m 0 min 0 min 0,0 UV-I 0 W/m 0,0 km/h (0 Bft)
29.03.2013 19:30 0,1 C -2,1 C 90 % 1007,9 hPa 0,0 l/m 0 min 0 min 0,0 UV-I 0 W/m 0,0 km/h (0 Bft)
29.03.2013 19:32 0,1 C -2,1 C 89 % 1007,9 hPa 0,0 l/m 0 min 0 min 0,0 UV-I 0 W/m 0,0 km/h (0 Bft)
29.03.2013 19:34 0,0 C -2,1 C 89 % 1007,9 hPa 0,0 l/m 0 min 0 min 0,0 UV-I 0 W/m 0,0 km/h (0 Bft)
29.03.2013 19:36 0,0 C -2,1 C 89 % 1007,9 hPa 0,0 l/m 0 min 0 min 0,0 UV-I 0 W/m 0,0 km/h (0 Bft)
29.03.2013 19:38 -0,1 C -2,7 C 89 % 1007,9 hPa 0,0 l/m 0 min 0 min 0,0 UV-I 0 W/m 0,0 km/h (0 Bft)
29.03.2013 19:40 -0,1 C -2,7 C 89 % 1008,0 hPa 0,0 l/m 0 min 0 min 0,0 UV-I 0 W/m 0,0 km/h (0 Bft)
29.03.2013 19:42 -0,1 C -2,7 C 89 % 1008,0 hPa 0,0 l/m 0 min 0 min 0,0 UV-I 0 W/m 0,0 km/h (0 Bft)
29.03.2013 19:44 -0,1 C -2,7 C 89 % 1007,9 hPa 0,0 l/m 0 min 0 min 0,0 UV-I 0 W/m 0,0 km/h (0 Bft)
29.03.2013 19:46 -0,2 C -2,7 C 89 % 1007,9 hPa 0,0 l/m 0 min 0 min 0,0 UV-I 0 W/m 0,0 km/h (0 Bft)
29.03.2013 19:48 -0,2 C -2,7 C 89 % 1008,0 hPa 0,0 l/m 0 min 0 min 0,0 UV-I 0 W/m 0,0 km/h (0 Bft)
29.03.2013 19:50 -0,2 C -2,7 C 89 % 1008,0 hPa 0,0 l/m 0 min 0 min 0,0 UV-I 0 W/m 0,0 km/h (0 Bft)
29.03.2013 19:52 -0,3 C -2,7 C 89 % 1007,9 hPa 0,0 l/m 0 min 0 min 0,0 UV-I 0 W/m 0,0 km/h (0 Bft)
29.03.2013 19:54 -0,3 C -2,7 C 90 % 1008,0 hPa 0,0 l/m 0 min 0 min 0,0 UV-I 0 W/m 0,0 km/h (0 Bft)
29.03.2013 19:56 -0,3 C -2,7 C 89 % 1008,0 hPa 0,0 l/m 0 min 0 min 0,0 UV-I 0 W/m 0,0 km/h (0 Bft)
29.03.2013 19:58 -0,3 C -2,7 C 90 % 1008,0 hPa 0,0 l/m 0 min 0 min 0,0 UV-I 0 W/m 0,0 km/h (0 Bft)
29.03.2013 20:00 -0,4 C -2,7 C 90 % 1008,0 hPa 0,0 l/m 0 min 0 min 0,0 UV-I 0 W/m 0,0 km/h (0 Bft)
29.03.2013 20:02 -0,4 C -2,7 C 89 % 1008,0 hPa 0,0 l/m 0 min 0 min 0,0 UV-I 0 W/m 0,0 km/h (0 Bft)
29.03.2013 20:06 -0,4 C -2,7 C 89 % 1008,0 hPa 0,0 l/m 0 min 0 min 0,0 UV-I 0 W/m 0,0 km/h (0 Bft)
29.03.2013 20:08 -0,5 C -3,2 C 89 % 1008,0 hPa 0,0 l/m 0 min 0 min 0,0 UV-I 0 W/m 0,0 km/h (0 Bft)
29.03.2013 20:10 -0,6 C -3,2 C 89 % 1008,0 hPa 0,0 l/m 0 min 0 min 0,0 UV-I 0 W/m 0,0 km/h (0 Bft)
29.03.2013 20:12 -0,6 C -3,2 C 89 % 1008,0 hPa 0,0 l/m 0 min 0 min 0,0 UV-I 0 W/m 0,0 km/h (0 Bft)
29.03.2013 20:14 -0,6 C -3,2 C 89 % 1008,0 hPa 0,0 l/m 0 min 0 min 0,0 UV-I 0 W/m 0,0 km/h (0 Bft)
29.03.2013 20:16 -0,7 C -2,7 C 89 % 1008,0 hPa 0,0 l/m 0 min 0 min 0,0 UV-I 0 W/m 0,0 km/h (0 Bft)
29.03.2013 20:18 -0,7 C -2,7 C 90 % 1008,0 hPa 0,0 l/m 0 min 0 min 0,0 UV-I 0 W/m 0,0 km/h (0 Bft)
29.03.2013 20:20 -0,7 C -2,7 C 90 % 1008,0 hPa 0,0 l/m 0 min 0 min 0,0 UV-I 0 W/m 0,0 km/h (0 Bft)
29.03.2013 20:22 -0,7 C -3,2 C 90 % 1007,9 hPa 0,0 l/m 0 min 0 min 0,0 UV-I 0 W/m 0,0 km/h (0 Bft)
29.03.2013 20:24 -0,8 C -3,2 C 90 % 1008,0 hPa 0,0 l/m 0 min 0 min 0,0 UV-I 0 W/m 0,0 km/h (0 Bft)
29.03.2013 20:26 -0,8 C -3,2 C 90 % 1008,0 hPa 0,0 l/m 0 min 0 min 0,0 UV-I 0 W/m 0,0 km/h (0 Bft)
29.03.2013 20:28 -0,8 C -3,2 C 90 % 1007,9 hPa 0,0 l/m 0 min 0 min 0,0 UV-I 0 W/m 0,0 km/h (0 Bft)
29.03.2013 20:30 -0,8 C -3,2 C 90 % 1008,0 hPa 0,0 l/m 0 min 0 min 0,0 UV-I 0 W/m 0,0 km/h (0 Bft)
29.03.2013 20:32 -0,9 C -3,2 C 90 % 1008,0 hPa 0,0 l/m 0 min 0 min 0,0 UV-I 0 W/m 0,0 km/h (0 Bft)
29.03.2013 20:34 -0,9 C -3,2 C 90 % 1008,0 hPa 0,0 l/m 0 min 0 min 0,0 UV-I 0 W/m 0,0 km/h (0 Bft)
29.03.2013 20:36 -0,9 C -3,2 C 90 % 1008,0 hPa 0,0 l/m 0 min 0 min 0,0 UV-I 0 W/m 0,0 km/h (0 Bft)
29.03.2013 20:38 -0,9 C -3,2 C 90 % 1008,0 hPa 0,0 l/m 0 min 0 min 0,0 UV-I 0 W/m 0,0 km/h (0 Bft)
29.03.2013 20:40 -1,0 C -3,2 C 90 % 1008,0 hPa 0,0 l/m 0 min 0 min 0,0 UV-I 0 W/m 0,0 km/h (0 Bft)
29.03.2013 20:42 -1,0 C -3,2 C 96 % 1008,0 hPa 0,0 l/m 0 min 0 min 0,0 UV-I 0 W/m 0,0 km/h (0 Bft)
29.03.2013 20:44 -1,1 C -3,2 C 90 % 1008,1 hPa 0,0 l/m 0 min 0 min 0,0 UV-I 0 W/m 0,0 km/h (0 Bft)
29.03.2013 20:46 -1,1 C -3,2 C 90 % 1008,0 hPa 0,0 l/m 0 min 0 min 0,0 UV-I 0 W/m 0,0 km/h (0 Bft)
29.03.2013 20:48 -1,1 C -3,2 C 90 % 1008,0 hPa 0,0 l/m 0 min 0 min 0,0 UV-I 0 W/m 0,0 km/h (0 Bft)
29.03.2013 20:50 -1,1 C -3,2 C 90 % 1008,0 hPa 0,0 l/m 0 min 0 min 0,0 UV-I 0 W/m 0,0 km/h (0 Bft)
29.03.2013 20:52 -1,2 C -3,2 C 90 % 1007,9 hPa 0,0 l/m 0 min 0 min 0,0 UV-I 0 W/m 0,0 km/h (0 Bft)
29.03.2013 20:54 -1,2 C -3,2 C 90 % 1008,0 hPa 0,0 l/m 0 min 0 min 0,0 UV-I 0 W/m 0,0 km/h (0 Bft)
29.03.2013 20:56 -1,2 C -3,2 C 90 % 1007,9 hPa 0,0 l/m 0 min 0 min 0,0 UV-I 0 W/m 0,0 km/h (0 Bft)
29.03.2013 20:58 -1,2 C -3,2 C 90 % 1007,9 hPa 0,0 l/m 0 min 0 min 0,0 UV-I 0 W/m 0,0 km/h (0 Bft)
29.03.2013 21:00 -1,2 C -3,2 C 90 % 1007,9 hPa 0,0 l/m 0 min 0 min 0,0 UV-I 0 W/m 0,0 km/h (0 Bft)
29.03.2013 21:02 -1,3 C -3,2 C 90 % 1008,0 hPa 0,0 l/m 0 min 0 min 0,0 UV-I 0 W/m 0,0 km/h (0 Bft)
29.03.2013 21:06 -1,3 C -3,2 C 90 % 1007,9 hPa 0,0 l/m 0 min 0 min 0,0 UV-I 0 W/m 0,0 km/h (0 Bft)
29.03.2013 21:08 -1,3 C -3,2 C 90 % 1007,9 hPa 0,0 l/m 0 min 0 min 0,0 UV-I 0 W/m 0,0 km/h (0 Bft)
29.03.2013 21:10 -1,3 C -3,2 C 90 % 1007,9 hPa 0,0 l/m 0 min 0 min 0,0 UV-I 0 W/m 0,0 km/h (0 Bft)
29.03.2013 21:12 -1,3 C -3,2 C 90 % 1007,9 hPa 0,0 l/m 0 min 0 min 0,0 UV-I 0 W/m 0,0 km/h (0 Bft)
29.03.2013 21:14 -1,3 C -3,2 C 90 % 1007,9 hPa 0,0 l/m 0 min 0 min 0,0 UV-I 0 W/m 0,0 km/h (0 Bft)
29.03.2013 21:16 -1,3 C -2,7 C 90 % 1007,9 hPa 0,0 l/m 0 min 0 min 0,0 UV-I 0 W/m 0,0 km/h (0 Bft)
29.03.2013 21:18 -1,4 C -2,7 C 90 % 1007,9 hPa 0,0 l/m 0 min 0 min 0,0 UV-I 0 W/m 0,0 km/h (0 Bft)
29.03.2013 21:20 -1,3 C -2,7 C 91 % 1007,9 hPa 0,0 l/m 0 min 0 min 0,0 UV-I 0 W/m 0,0 km/h (0 Bft)
29.03.2013 21:22 -1,3 C -2,1 C 91 % 1007,8 hPa 0,0 l/m 0 min 0 min 0,0 UV-I 0 W/m 0,0 km/h (0 Bft)
29.03.2013 21:24 -1,3 C -2,1 C 91 % 1007,9 hPa 0,0 l/m 0 min 0 min 0,0 UV-I 0 W/m 0,0 km/h (0 Bft)
29.03.2013 21:26 -1,3 C -2,1 C 91 % 1007,8 hPa 0,0 l/m 0 min 0 min 0,0 UV-I 0 W/m 0,0 km/h (0 Bft)
29.03.2013 21:28 -1,3 C -2,1 C 91 % 1007,8 hPa 0,0 l/m 0 min 0 min 0,0 UV-I 0 W/m 0,0 km/h (0 Bft)
29.03.2013 21:30 -1,3 C -2,1 C 92 % 1007,8 hPa 0,0 l/m 0 min 0 min 0,0 UV-I 0 W/m 0,0 km/h (0 Bft)
29.03.2013 21:32 -1,3 C -2,1 C 92 % 1007,8 hPa 0,0 l/m 0 min 0 min 0,0 UV-I 0 W/m 0,0 km/h (0 Bft)
29.03.2013 21:34 -1,3 C -2,1 C 92 % 1007,8 hPa 0,0 l/m 0 min 0 min 0,0 UV-I 0 W/m 0,0 km/h (0 Bft)
29.03.2013 21:36 -1,2 C -2,1 C 92 % 1007,9 hPa 0,0 l/m 0 min 0 min 0,0 UV-I 0 W/m 0,0 km/h (0 Bft)
29.03.2013 21:38 -1,2 C -2,1 C 92 % 1007,9 hPa 0,0 l/m 0 min 0 min 0,0 UV-I 0 W/m 0,0 km/h (0 Bft)
29.03.2013 21:40 -1,2 C -2,1 C 92 % 1007,9 hPa 0,0 l/m 0 min 0 min 0,0 UV-I 0 W/m 0,0 km/h (0 Bft)
29.03.2013 21:42 -1,2 C -2,1 C 92 % 1007,9 hPa 0,0 l/m 0 min 0 min 0,0 UV-I 0 W/m 0,0 km/h (0 Bft)
29.03.2013 21:44 -1,2 C -2,1 C 92 % 1007,8 hPa 0,0 l/m 0 min 0 min 0,0 UV-I 0 W/m 0,0 km/h (0 Bft)
29.03.2013 21:46 -1,2 C -2,1 C 92 % 1007,9 hPa 0,0 l/m 0 min 0 min 0,0 UV-I 0 W/m 0,0 km/h (0 Bft)
29.03.2013 21:48 -1,2 C -2,1 C 92 % 1007,9 hPa 0,0 l/m 0 min 0 min 0,0 UV-I 0 W/m 0,0 km/h (0 Bft)
29.03.2013 21:50 -1,2 C -2,1 C 93 % 1007,9 hPa 0,0 l/m 0 min 0 min 0,0 UV-I 0 W/m 0,0 km/h (0 Bft)
29.03.2013 21:52 -1,1 C -2,1 C 93 % 1008,0 hPa 0,0 l/m 0 min 0 min 0,0 UV-I 0 W/m 0,0 km/h (0 Bft)
29.03.2013 21:54 -1,1 C -2,1 C 93 % 1008,1 hPa 0,0 l/m 0 min 0 min 0,0 UV-I 0 W/m 0,0 km/h (0 Bft)
29.03.2013 21:56 -1,1 C -2,1 C 93 % 1008,0 hPa 0,0 l/m 0 min 0 min 0,0 UV-I 0 W/m 0,0 km/h (0 Bft)
29.03.2013 21:58 -1,1 C -2,1 C 93 % 1008,0 hPa 0,0 l/m 0 min 0 min 0,0 UV-I 0 W/m 0,0 km/h (0 Bft)
29.03.2013 22:00 -1,1 C -2,1 C 93 % 1008,0 hPa 0,0 l/m 0 min 0 min 0,0 UV-I 0 W/m 0,0 km/h (0 Bft)
29.03.2013 22:02 -1,1 C -2,1 C 93 % 1007,9 hPa 0,0 l/m 0 min 0 min 0,0 UV-I 0 W/m 0,0 km/h (0 Bft)
29.03.2013 22:06 -1,1 C -2,1 C 93 % 1007,9 hPa 0,0 l/m 0 min 0 min 0,0 UV-I 0 W/m 0,0 km/h (0 Bft)
29.03.2013 22:08 -1,1 C -2,1 C 93 % 1007,9 hPa 0,0 l/m 0 min 0 min 0,0 UV-I 0 W/m 0,0 km/h (0 Bft)
29.03.2013 22:10 -1,1 C -1,6 C 93 % 1007,9 hPa 0,0 l/m 0 min 0 min 0,0 UV-I 0 W/m 0,0 km/h (0 Bft)
29.03.2013 22:12 -1,1 C -1,6 C 93 % 1007,9 hPa 0,0 l/m 0 min 0 min 0,0 UV-I 0 W/m 0,0 km/h (0 Bft)
29.03.2013 22:14 -1,1 C -1,6 C 93 % 1007,9 hPa 0,0 l/m 0 min 0 min 0,0 UV-I 0 W/m 0,0 km/h (0 Bft)
29.03.2013 22:16 -1,0 C -1,6 C 93 % 1007,9 hPa 0,0 l/m 0 min 0 min 0,0 UV-I 0 W/m 0,0 km/h (0 Bft)
29.03.2013 22:18 -1,0 C -1,6 C 93 % 1007,9 hPa 0,0 l/m 0 min 0 min 0,0 UV-I 0 W/m 0,0 km/h (0 Bft)
29.03.2013 22:20 -0,9 C -1,6 C 93 % 1007,9 hPa 0,0 l/m 0 min 0 min 0,0 UV-I 0 W/m 0,0 km/h (0 Bft)
29.03.2013 22:22 -0,9 C -1,6 C 93 % 1007,9 hPa 0,0 l/m 0 min 0 min 0,0 UV-I 0 W/m 0,0 km/h (0 Bft)
29.03.2013 22:24 -0,9 C -1,6 C 93 % 1007,9 hPa 0,0 l/m 0 min 0 min 0,0 UV-I 0 W/m 0,0 km/h (0 Bft)
29.03.2013 22:26 -0,9 C -1,6 C 93 % 1007,9 hPa 0,0 l/m 0 min 0 min 0,0 UV-I 0 W/m 0,0 km/h (0 Bft)
29.03.2013 22:28 -0,8 C -1,6 C 93 % 1007,8 hPa 0,0 l/m 0 min 0 min 0,0 UV-I 0 W/m 0,0 km/h (0 Bft)
29.03.2013 22:30 -0,8 C -1,6 C 94 % 1007,9 hPa 0,0 l/m 0 min 0 min 0,0 UV-I 0 W/m 0,0 km/h (0 Bft)
29.03.2013 22:32 -0,8 C -1,6 C 94 % 1007,8 hPa 0,0 l/m 0 min 0 min 0,0 UV-I 0 W/m 0,0 km/h (0 Bft)
29.03.2013 22:34 -0,8 C -1,6 C 94 % 1007,8 hPa 0,0 l/m 0 min 0 min 0,0 UV-I 0 W/m 0,0 km/h (0 Bft)
29.03.2013 22:36 -0,8 C -1,6 C 94 % 1007,8 hPa 0,0 l/m 0 min 0 min 0,0 UV-I 0 W/m 0,0 km/h (0 Bft)
29.03.2013 22:38 -0,8 C -1,6 C 94 % 1007,7 hPa 0,0 l/m 0 min 0 min 0,0 UV-I 0 W/m 0,0 km/h (0 Bft)
29.03.2013 22:40 -0,7 C -1,6 C 94 % 1007,7 hPa 0,0 l/m 0 min 0 min 0,0 UV-I 0 W/m 0,0 km/h (0 Bft)
29.03.2013 22:42 -0,7 C -1,6 C 94 % 1007,7 hPa 0,0 l/m 0 min 0 min 0,0 UV-I 0 W/m 0,0 km/h (0 Bft)
29.03.2013 22:44 -0,7 C -1,6 C 94 % 1007,7 hPa 0,0 l/m 0 min 0 min 0,0 UV-I 0 W/m 0,0 km/h (0 Bft)
29.03.2013 22:46 -0,7 C -1,6 C 94 % 1007,7 hPa 0,0 l/m 0 min 0 min 0,0 UV-I 0 W/m 0,0 km/h (0 Bft)
29.03.2013 22:48 -0,7 C -1,6 C 94 % 1007,8 hPa 0,0 l/m 0 min 0 min 0,0 UV-I 0 W/m 0,0 km/h (0 Bft)
29.03.2013 22:50 -0,7 C -1,6 C 94 % 1007,7 hPa 0,0 l/m 0 min 0 min 0,0 UV-I 0 W/m 0,0 km/h (0 Bft)
29.03.2013 22:52 -0,6 C -1,6 C 94 % 1007,8 hPa 0,0 l/m 0 min 0 min 0,0 UV-I 0 W/m 0,0 km/h (0 Bft)
29.03.2013 22:54 -0,6 C -1,6 C 94 % 1007,7 hPa 0,0 l/m 0 min 0 min 0,0 UV-I 0 W/m 0,0 km/h (0 Bft)
29.03.2013 22:56 -0,6 C -1,6 C 94 % 1007,7 hPa 0,0 l/m 0 min 0 min 0,0 UV-I 0 W/m 0,0 km/h (0 Bft)
29.03.2013 22:58 -0,6 C -1,6 C 94 % 1007,7 hPa 0,0 l/m 0 min 0 min 0,0 UV-I 0 W/m 0,0 km/h (0 Bft)
29.03.2013 23:00 -0,6 C -1,6 C 94 % 1007,7 hPa 0,0 l/m 0 min 0 min 0,0 UV-I 0 W/m 0,0 km/h (0 Bft)
29.03.2013 23:02 -0,6 C -1,6 C 94 % 1007,7 hPa 0,0 l/m 0 min 0 min 0,0 UV-I 0 W/m 0,0 km/h (0 Bft)
29.03.2013 23:06 -0,5 C -1,6 C 95 % 1007,7 hPa 0,0 l/m 0 min 0 min 0,0 UV-I 0 W/m 0,0 km/h (0 Bft)
29.03.2013 23:08 -0,5 C -1,6 C 95 % 1007,7 hPa 0,0 l/m 0 min 0 min 0,0 UV-I 0 W/m 0,0 km/h (0 Bft)
29.03.2013 23:10 -0,5 C -1,6 C 95 % 1007,7 hPa 0,0 l/m 0 min 0 min 0,0 UV-I 0 W/m 0,0 km/h (0 Bft)
29.03.2013 23:12 -0,5 C -1,6 C 95 % 1007,7 hPa 0,0 l/m 0 min 0 min 0,0 UV-I 0 W/m 5,1 km/h (1 Bft)
29.03.2013 23:14 -0,5 C -1,6 C 95 % 1007,7 hPa 0,0 l/m 0 min 0 min 0,0 UV-I 0 W/m 2,6 km/h (1 Bft)
29.03.2013 23:16 -0,4 C -1,6 C 95 % 1007,6 hPa 0,0 l/m 0 min 0 min 0,0 UV-I 0 W/m 0,0 km/h (0 Bft)
29.03.2013 23:18 -0,4 C -1,6 C 95 % 1007,6 hPa 0,0 l/m 0 min 0 min 0,0 UV-I 0 W/m 2,6 km/h (1 Bft)
29.03.2013 23:20 -0,4 C -1,6 C 95 % 1007,7 hPa 0,0 l/m 0 min 0 min 0,0 UV-I 0 W/m 0,0 km/h (0 Bft)
29.03.2013 23:22 -0,4 C -1,6 C 95 % 1007,7 hPa 0,0 l/m 0 min 0 min 0,0 UV-I 0 W/m 0,0 km/h (0 Bft)
29.03.2013 23:24 -0,4 C -1,6 C 95 % 1007,7 hPa 0,0 l/m 0 min 0 min 0,0 UV-I 0 W/m 0,0 km/h (0 Bft)
29.03.2013 23:26 -0,4 C -1,6 C 95 % 1007,7 hPa 0,0 l/m 0 min 0 min 0,0 UV-I 0 W/m 0,0 km/h (0 Bft)
29.03.2013 23:28 -0,4 C -1,6 C 95 % 1007,7 hPa 0,0 l/m 0 min 0 min 0,0 UV-I 0 W/m 0,0 km/h (0 Bft)
29.03.2013 23:30 -0,4 C -1,6 C 95 % 1007,6 hPa 0,0 l/m 0 min 0 min 0,0 UV-I 0 W/m 0,0 km/h (0 Bft)
29.03.2013 23:32 -0,4 C -1,6 C 95 % 1007,6 hPa 0,0 l/m 0 min 0 min 0,0 UV-I 0 W/m 0,0 km/h (0 Bft)
29.03.2013 23:34 -0,4 C -1,6 C 95 % 1007,6 hPa 0,0 l/m 0 min 0 min 0,0 UV-I 0 W/m 0,0 km/h (0 Bft)
29.03.2013 23:36 -0,4 C -1,6 C 95 % 1007,7 hPa 0,0 l/m 0 min 0 min 0,0 UV-I 0 W/m 0,0 km/h (0 Bft)
29.03.2013 23:38 -0,4 C -1,6 C 95 % 1007,7 hPa 0,0 l/m 0 min 0 min 0,0 UV-I 0 W/m 0,0 km/h (0 Bft)
29.03.2013 23:40 -0,4 C -1,6 C 95 % 1007,7 hPa 0,0 l/m 0 min 0 min 0,0 UV-I 0 W/m 0,0 km/h (0 Bft)
29.03.2013 23:42 -0,4 C -1,6 C 95 % 1007,7 hPa 0,0 l/m 0 min 0 min 0,0 UV-I 0 W/m 0,0 km/h (0 Bft)
29.03.2013 23:44 -0,4 C -1,6 C 95 % 1007,6 hPa 0,0 l/m 0 min 0 min 0,0 UV-I 0 W/m 0,0 km/h (0 Bft)
29.03.2013 23:46 -0,4 C -1,6 C 95 % 1007,6 hPa 0,0 l/m 0 min 0 min 0,0 UV-I 0 W/m 0,0 km/h (0 Bft)
29.03.2013 23:48 -0,4 C -1,6 C 95 % 1007,6 hPa 0,0 l/m 0 min 0 min 0,0 UV-I 0 W/m 0,0 km/h (0 Bft)
29.03.2013 23:50 -0,4 C -1,6 C 95 % 1007,6 hPa 0,0 l/m 0 min 0 min 0,0 UV-I 0 W/m 0,0 km/h (0 Bft)
29.03.2013 23:52 -0,4 C -1,6 C 95 % 1007,6 hPa 0,0 l/m 0 min 0 min 0,0 UV-I 0 W/m 0,0 km/h (0 Bft)
29.03.2013 23:54 -0,4 C -1,6 C 95 % 1007,6 hPa 0,0 l/m 0 min 0 min 0,0 UV-I 0 W/m 0,0 km/h (0 Bft)
29.03.2013 23:56 -0,4 C -1,6 C 95 % 1007,7 hPa 0,0 l/m 0 min 0 min 0,0 UV-I 0 W/m 0,0 km/h (0 Bft)
29.03.2013 23:58 -0,4 C -1,6 C 95 % 1007,7 hPa 0,0 l/m 0 min 0 min 0,0 UV-I 0 W/m 0,0 km/h (0 Bft)
_ Min-Zeit 06:18 20:08 14:08 23:16 - - - - - 00:00
Minimum _ -1,7 C -3,2 C 70 % 1007,6 hPa - - - - - 0,0 km/h (0 Bft)
_ Max-Zeit 14:06 14:02 04:24 08:06 09:50 09:34 00:00 13:54 13:56 14:12
Maximum _ 3,2 C 5,1 C 96 % 1009,0 hPa 0,2 l/m 2 min 0 min 1,3 UV-I 636 W/m 18,0 km/h
N-NW (3 Bft)
Durchschnitt _ -0,0 C -0,7 C 87 % 1008,3 hPa #0,2 l/m #1:16 h #0 min. 0,8 UV-I 143 W/m 3,7 km/h (1 Bft)
© 2013 W. Hausmann